Time,TemperatureF,DewpointF,PressureIn,WindDirection,WindDirectionDegrees,WindSpeedMPH,WindSpeedGustMPH,Humidity,HourlyPrecipIn,Conditions,Clouds,dailyrainin,SoftwareType,DateUTC
2014-03-15 00:00:00,56.6,37.3,29.99,WNW,296,1.2,2.6,48,0.00,,,0.00,WeatherCatV1.24B11,2014-03-15 04:00:00,
2014-03-15 00:01:00,59.8,51.5,30.10,ENE,64,0.0,0.0,74,0.00,,,0.00,LWC V2.10 B1500,2014-03-15 04:01:00,
2014-03-15 00:02:00,59.6,51.3,30.10,ENE,66,0.0,0.0,74,0.00,,,0.00,LWC V2.10 B1500,2014-03-15 04:02:00,
2014-03-15 00:05:00,56.6,37.3,29.99,WNW,296,1.2,2.6,48,0.00,,,0.00,WeatherCatV1.24B11,2014-03-15 04:05:00,
2014-03-15 00:07:00,59.6,51.3,30.10,ENE,71,0.0,2.0,74,0.00,,,0.00,LWC V2.10 B1500,2014-03-15 04:07:00,
2014-03-15 00:10:00,56.6,37.3,29.99,WNW,296,1.2,2.6,48,0.00,,,0.00,WeatherCatV1.24B11,2014-03-15 04:10:00,
2014-03-15 00:12:00,59.6,51.7,30.10,East,89,1.0,3.0,75,0.00,,,0.00,LWC V2.10 B1500,2014-03-15 04:12:00,
2014-03-15 00:15:00,56.6,37.3,29.99,WNW,296,1.2,2.6,48,0.00,,,0.00,WeatherCatV1.24B11,2014-03-15 04:15:00,
2014-03-15 00:17:00,59.6,51.7,30.09,ESE,103,0.0,0.0,75,0.00,,,0.00,LWC V2.10 B1500,2014-03-15 04:17:00,
2014-03-15 00:20:00,56.6,37.3,29.99,WNW,296,1.2,2.6,48,0.00,,,0.00,WeatherCatV1.24B11,2014-03-15 04:20:00,
2014-03-15 00:22:00,59.5,51.6,30.09,ESE,103,0.0,0.0,75,0.00,,,0.00,LWC V2.10 B1500,2014-03-15 04:22:00,
2014-03-15 00:25:00,56.6,37.3,29.99,WNW,296,1.2,2.6,48,0.00,,,0.00,WeatherCatV1.24B11,2014-03-15 04:25:00,
2014-03-15 00:27:00,59.3,51.4,30.09,ENE,73,0.0,3.0,75,0.00,,,0.00,LWC V2.10 B1500,2014-03-15 04:27:00,
2014-03-15 00:30:00,56.6,37.3,29.99,WNW,296,1.2,2.6,48,0.00,,,0.00,WeatherCatV1.24B11,2014-03-15 04:30:00,
2014-03-15 00:32:00,59.3,51.4,30.08,ENE,73,0.0,0.0,75,0.00,,,0.00,LWC V2.10 B1500,2014-03-15 04:32:00,
2014-03-15 00:35:00,56.6,37.3,29.99,WNW,296,1.2,2.6,48,0.00,,,0.00,WeatherCatV1.24B11,2014-03-15 04:35:00,
2014-03-15 00:37:00,59.2,51.3,30.08,ENE,73,0.0,0.0,75,0.00,,,0.00,LWC V2.10 B1500,2014-03-15 04:37:00,
2014-03-15 00:40:00,56.6,37.3,29.99,WNW,296,1.2,2.6,48,0.00,,,0.00,WeatherCatV1.24B11,2014-03-15 04:40:00,
2014-03-15 00:42:00,59.2,51.3,30.08,ENE,78,0.0,1.0,75,0.00,,,0.00,LWC V2.10 B1500,2014-03-15 04:42:00,
2014-03-15 00:45:00,56.6,37.3,29.99,WNW,296,1.2,2.6,48,0.00,,,0.00,WeatherCatV1.24B11,2014-03-15 04:45:00,
2014-03-15 00:47:00,59.2,51.3,30.08,East,79,0.0,0.0,75,0.00,,,0.00,LWC V2.10 B1500,2014-03-15 04:47:00,
2014-03-15 00:50:00,56.6,37.3,29.99,WNW,296,1.2,2.6,48,0.00,,,0.00,WeatherCatV1.24B11,2014-03-15 04:50:00,
2014-03-15 00:52:00,59.2,51.3,30.08,East,79,0.0,0.0,75,0.00,,,0.00,LWC V2.10 B1500,2014-03-15 04:52:00,
2014-03-15 00:55:00,56.6,37.3,29.99,WNW,296,1.2,2.6,48,0.00,,,0.00,WeatherCatV1.24B11,2014-03-15 04:55:00,
2014-03-15 00:57:00,59.0,51.1,30.08,East,79,0.0,0.0,75,0.00,,,0.00,LWC V2.10 B1500,2014-03-15 04:57:00,
2014-03-15 01:00:00,56.6,37.3,29.99,WNW,296,1.2,2.6,48,0.00,,,0.00,WeatherCatV1.24B11,2014-03-15 05:00:00,
2014-03-15 01:02:00,58.9,51.0,30.08,East,79,0.0,0.0,75,0.00,,,0.00,LWC V2.10 B1500,2014-03-15 05:02:00,
2014-03-15 01:05:00,56.6,37.3,29.99,WNW,296,1.2,2.6,48,0.00,,,0.00,WeatherCatV1.24B11,2014-03-15 05:05:00,
2014-03-15 01:07:00,58.7,50.8,30.08,East,79,0.0,0.0,75,0.00,,,0.00,LWC V2.10 B1500,2014-03-15 05:07:00,
2014-03-15 01:10:00,56.6,37.3,29.99,WNW,296,1.2,2.6,48,0.00,,,0.00,WeatherCatV1.24B11,2014-03-15 05:10:00,
2014-03-15 01:12:00,58.6,50.7,30.08,East,79,0.0,0.0,75,0.00,,,0.00,LWC V2.10 B1500,2014-03-15 05:12:00,
2014-03-15 01:15:00,56.6,37.3,29.99,WNW,296,1.2,2.6,48,0.00,,,0.00,WeatherCatV1.24B11,2014-03-15 05:15:00,
2014-03-15 01:17:00,58.4,50.9,30.07,East,99,0.0,0.0,76,0.00,,,0.00,LWC V2.10 B1500,2014-03-15 05:17:00,
2014-03-15 01:20:00,56.6,37.3,29.99,WNW,296,1.2,2.6,48,0.00,,,0.00,WeatherCatV1.24B11,2014-03-15 05:20:00,
2014-03-15 01:22:00,58.3,50.8,30.07,East,99,0.0,0.0,76,0.00,,,0.00,LWC V2.10 B1500,2014-03-15 05:22:00,
2014-03-15 01:25:00,56.6,37.3,29.99,WNW,296,1.2,2.6,48,0.00,,,0.00,WeatherCatV1.24B11,2014-03-15 05:25:00,
2014-03-15 01:27:00,58.3,50.8,30.07,East,99,0.0,0.0,76,0.00,,,0.00,LWC V2.10 B1500,2014-03-15 05:27:00,
2014-03-15 01:30:00,56.6,37.3,29.99,WNW,296,1.2,2.6,48,0.00,,,0.00,WeatherCatV1.24B11,2014-03-15 05:30:00,
2014-03-15 01:32:00,58.1,50.6,30.07,East,99,0.0,0.0,76,0.00,,,0.00,LWC V2.10 B1500,2014-03-15 05:32:00,
2014-03-15 01:35:00,56.6,37.3,29.99,WNW,296,1.2,2.6,48,0.00,,,0.00,WeatherCatV1.24B11,2014-03-15 05:35:00,
2014-03-15 01:37:00,58.0,50.5,30.07,East,99,0.0,0.0,76,0.00,,,0.00,LWC V2.10 B1500,2014-03-15 05:37:00,
2014-03-15 01:40:00,56.7,37.3,29.99,WNW,296,1.2,2.6,48,0.00,,,0.00,WeatherCatV1.24B11,2014-03-15 05:40:00,
2014-03-15 01:42:00,57.8,50.3,30.07,East,99,0.0,0.0,76,0.00,,,0.00,LWC V2.10 B1500,2014-03-15 05:42:00,
2014-03-15 01:45:00,56.7,37.3,29.99,WNW,296,1.2,2.6,48,0.00,,,0.00,WeatherCatV1.24B11,2014-03-15 05:45:00,
2014-03-15 01:47:00,57.6,50.1,30.06,East,99,0.0,0.0,76,0.00,,,0.00,LWC V2.10 B1500,2014-03-15 05:47:00,
2014-03-15 01:50:00,56.7,37.3,29.99,WNW,296,1.2,2.6,48,0.00,,,0.00,WeatherCatV1.24B11,2014-03-15 05:50:00,
2014-03-15 01:52:00,57.6,50.1,30.06,East,99,0.0,0.0,76,0.00,,,0.00,LWC V2.10 B1500,2014-03-15 05:52:00,
2014-03-15 01:55:00,56.7,37.3,29.99,WNW,296,1.2,2.6,48,0.00,,,0.00,WeatherCatV1.24B11,2014-03-15 05:55:00,
2014-03-15 01:57:00,57.5,50.3,30.06,ESE,109,0.0,0.0,77,0.00,,,0.00,LWC V2.10 B1500,2014-03-15 05:57:00,
2014-03-15 02:00:00,56.7,37.3,29.99,WNW,296,1.2,2.6,48,0.00,,,0.00,WeatherCatV1.24B11,2014-03-15 06:00:00,
2014-03-15 02:02:00,57.6,50.4,30.06,ESE,109,0.0,0.0,77,0.00,,,0.00,LWC V2.10 B1500,2014-03-15 06:02:00,
2014-03-15 02:05:00,56.7,37.3,29.99,WNW,296,1.2,2.6,48,0.00,,,0.00,WeatherCatV1.24B11,2014-03-15 06:05:00,
2014-03-15 02:07:00,57.6,50.4,30.06,ESE,109,0.0,0.0,77,0.00,,,0.00,LWC V2.10 B1500,2014-03-15 06:07:00,
2014-03-15 02:10:00,56.7,37.3,29.99,WNW,296,1.2,2.6,48,0.00,,,0.00,WeatherCatV1.24B11,2014-03-15 06:10:00,
2014-03-15 02:12:00,57.6,50.4,30.06,ESE,110,0.0,0.0,77,0.00,,,0.00,LWC V2.10 B1500,2014-03-15 06:12:00,
2014-03-15 02:15:00,56.7,37.3,29.99,WNW,296,1.2,2.6,48,0.00,,,0.00,WeatherCatV1.24B11,2014-03-15 06:15:00,
2014-03-15 02:17:00,57.6,50.4,30.06,ESE,110,0.0,0.0,77,0.00,,,0.00,LWC V2.10 B1500,2014-03-15 06:17:00,
2014-03-15 02:20:00,56.7,37.3,29.99,WNW,296,1.2,2.6,48,0.00,,,0.00,WeatherCatV1.24B11,2014-03-15 06:20:00,
2014-03-15 02:22:00,57.5,50.3,30.06,ESE,110,0.0,0.0,77,0.00,,,0.00,LWC V2.10 B1500,2014-03-15 06:22:00,
2014-03-15 02:25:00,56.7,37.3,29.99,WNW,296,1.2,2.6,48,0.00,,,0.00,WeatherCatV1.24B11,2014-03-15 06:25:00,
2014-03-15 02:27:00,57.5,50.3,30.06,ESE,110,0.0,0.0,77,0.00,,,0.00,LWC V2.10 B1500,2014-03-15 06:27:00,
2014-03-15 02:30:00,56.7,37.3,29.99,WNW,296,1.2,2.6,48,0.00,,,0.00,WeatherCatV1.24B11,2014-03-15 06:30:00,
2014-03-15 02:32:00,57.3,50.2,30.06,ESE,110,0.0,0.0,77,0.00,,,0.00,LWC V2.10 B1500,2014-03-15 06:32:00,
2014-03-15 02:35:00,56.7,37.3,29.99,WNW,296,1.2,2.6,48,0.00,,,0.00,WeatherCatV1.24B11,2014-03-15 06:35:00,
2014-03-15 02:37:00,57.2,50.1,30.06,ESE,110,0.0,0.0,77,0.00,,,0.00,LWC V2.10 B1500,2014-03-15 06:37:00,
2014-03-15 02:40:00,56.7,37.3,29.99,WNW,296,1.2,2.6,48,0.00,,,0.00,WeatherCatV1.24B11,2014-03-15 06:40:00,
2014-03-15 02:42:00,57.0,49.9,30.06,ESE,110,0.0,0.0,77,0.00,,,0.00,LWC V2.10 B1500,2014-03-15 06:42:00,
2014-03-15 02:45:00,56.7,37.3,29.99,WNW,296,1.2,2.6,48,0.00,,,0.00,WeatherCatV1.24B11,2014-03-15 06:45:00,
2014-03-15 02:47:00,56.9,49.8,30.06,ESE,110,0.0,0.0,77,0.00,,,0.00,LWC V2.10 B1500,2014-03-15 06:47:00,
2014-03-15 02:50:00,56.7,37.3,29.99,WNW,296,1.2,2.6,48,0.00,,,0.00,WeatherCatV1.24B11,2014-03-15 06:50:00,
2014-03-15 02:52:00,56.9,50.1,30.06,ESE,110,0.0,0.0,78,0.00,,,0.00,LWC V2.10 B1500,2014-03-15 06:52:00,
2014-03-15 02:55:00,56.7,37.3,29.99,WNW,296,1.2,2.6,48,0.00,,,0.00,WeatherCatV1.24B11,2014-03-15 06:55:00,
2014-03-15 02:57:00,56.7,49.9,30.06,ESE,110,0.0,0.0,78,0.00,,,0.00,LWC V2.10 B1500,2014-03-15 06:57:00,
2014-03-15 03:00:00,56.7,37.3,29.99,WNW,296,1.2,2.6,48,0.00,,,0.00,WeatherCatV1.24B11,2014-03-15 07:00:00,
2014-03-15 03:02:00,56.7,49.9,30.05,ESE,110,0.0,0.0,78,0.00,,,0.00,LWC V2.10 B1500,2014-03-15 07:02:00,
2014-03-15 03:05:00,56.7,37.3,29.99,WNW,296,1.2,2.6,48,0.00,,,0.00,WeatherCatV1.24B11,2014-03-15 07:05:00,
2014-03-15 03:07:00,56.7,49.9,30.05,ESE,110,0.0,0.0,78,0.00,,,0.00,LWC V2.10 B1500,2014-03-15 07:07:00,
2014-03-15 03:10:00,56.7,37.3,29.99,WNW,296,1.2,2.6,48,0.00,,,0.00,WeatherCatV1.24B11,2014-03-15 07:10:00,
2014-03-15 03:12:00,56.6,49.8,30.05,ESE,110,0.0,0.0,78,0.00,,,0.00,LWC V2.10 B1500,2014-03-15 07:12:00,
2014-03-15 03:15:00,56.7,37.3,29.99,WNW,296,1.2,2.6,48,0.00,,,0.00,WeatherCatV1.24B11,2014-03-15 07:15:00,
2014-03-15 03:17:00,56.6,49.8,30.05,ESE,110,0.0,0.0,78,0.00,,,0.00,LWC V2.10 B1500,2014-03-15 07:17:00,
2014-03-15 03:20:00,56.7,37.3,29.99,WNW,296,1.2,2.6,48,0.00,,,0.00,WeatherCatV1.24B11,2014-03-15 07:20:00,
2014-03-15 03:22:00,56.6,50.2,30.05,ESE,110,0.0,0.0,79,0.00,,,0.00,LWC V2.10 B1500,2014-03-15 07:22:00,
2014-03-15 03:25:00,56.7,37.3,29.99,WNW,296,1.2,2.6,48,0.00,,,0.00,WeatherCatV1.24B11,2014-03-15 07:25:00,
2014-03-15 03:27:00,56.5,49.7,30.05,ESE,110,0.0,0.0,78,0.00,,,0.00,LWC V2.10 B1500,2014-03-15 07:27:00,
2014-03-15 03:30:00,56.7,37.3,29.99,WNW,296,1.2,2.6,48,0.00,,,0.00,WeatherCatV1.24B11,2014-03-15 07:30:00,
2014-03-15 03:32:00,56.5,50.1,30.05,ESE,110,0.0,0.0,79,0.00,,,0.00,LWC V2.10 B1500,2014-03-15 07:32:00,
2014-03-15 03:35:00,56.7,37.3,29.99,WNW,296,1.2,2.6,48,0.00,,,0.00,WeatherCatV1.24B11,2014-03-15 07:35:00,
2014-03-15 03:37:00,56.3,49.9,30.05,ESE,110,0.0,0.0,79,0.00,,,0.00,LWC V2.10 B1500,2014-03-15 07:37:00,
2014-03-15 03:40:00,56.7,37.3,29.99,WNW,296,1.2,2.6,48,0.00,,,0.00,WeatherCatV1.24B11,2014-03-15 07:40:00,
2014-03-15 03:42:00,56.3,49.9,30.05,ESE,110,0.0,0.0,79,0.00,,,0.00,LWC V2.10 B1500,2014-03-15 07:42:00,
2014-03-15 03:45:00,56.7,37.3,29.99,WNW,296,1.2,2.6,48,0.00,,,0.00,WeatherCatV1.24B11,2014-03-15 07:45:00,
2014-03-15 03:47:00,56.2,49.8,30.04,ESE,110,0.0,0.0,79,0.00,,,0.00,LWC V2.10 B1500,2014-03-15 07:47:00,
2014-03-15 03:50:00,56.7,37.3,29.99,WNW,296,1.2,2.6,48,0.00,,,0.00,WeatherCatV1.24B11,2014-03-15 07:50:00,
2014-03-15 03:52:00,56.2,49.8,30.04,ESE,110,0.0,0.0,79,0.00,,,0.00,LWC V2.10 B1500,2014-03-15 07:52:00,
2014-03-15 03:55:00,56.7,37.3,29.99,WNW,296,1.2,2.6,48,0.00,,,0.00,WeatherCatV1.24B11,2014-03-15 07:55:00,
2014-03-15 03:57:00,56.0,49.6,30.04,ESE,110,0.0,0.0,79,0.00,,,0.00,LWC V2.10 B1500,2014-03-15 07:57:00,
2014-03-15 04:00:00,56.7,37.3,29.99,WNW,296,1.2,2.6,48,0.00,,,0.00,WeatherCatV1.24B11,2014-03-15 08:00:00,
2014-03-15 04:02:00,56.0,49.9,30.03,ESE,110,0.0,0.0,80,0.00,,,0.00,LWC V2.10 B1500,2014-03-15 08:02:00,
2014-03-15 04:05:00,56.7,37.3,29.99,WNW,296,1.2,2.6,48,0.00,,,0.00,WeatherCatV1.24B11,2014-03-15 08:05:00,
2014-03-15 04:07:00,55.9,49.8,30.03,ESE,110,0.0,0.0,80,0.00,,,0.00,LWC V2.10 B1500,2014-03-15 08:07:00,
2014-03-15 04:10:00,56.7,37.3,29.99,WNW,296,1.2,2.6,48,0.00,,,0.00,WeatherCatV1.24B11,2014-03-15 08:10:00,
2014-03-15 04:12:00,55.9,49.8,30.03,ESE,110,0.0,0.0,80,0.00,,,0.00,LWC V2.10 B1500,2014-03-15 08:12:00,
2014-03-15 04:15:00,56.7,37.3,29.99,WNW,296,1.2,2.6,48,0.00,,,0.00,WeatherCatV1.24B11,2014-03-15 08:15:00,
2014-03-15 04:17:00,55.7,49.6,30.02,ESE,110,0.0,0.0,80,0.00,,,0.00,LWC V2.10 B1500,2014-03-15 08:17:00,
2014-03-15 04:20:00,56.7,37.3,29.99,WNW,296,1.2,2.6,48,0.00,,,0.00,WeatherCatV1.24B11,2014-03-15 08:20:00,
2014-03-15 04:22:00,55.9,49.8,30.02,ESE,121,0.0,0.0,80,0.00,,,0.00,LWC V2.10 B1500,2014-03-15 08:22:00,
2014-03-15 04:25:00,56.7,37.3,29.99,WNW,296,1.2,2.6,48,0.00,,,0.00,WeatherCatV1.24B11,2014-03-15 08:25:00,
2014-03-15 04:27:00,56.0,49.9,30.02,ESE,121,0.0,0.0,80,0.00,,,0.00,LWC V2.10 B1500,2014-03-15 08:27:00,
2014-03-15 04:30:00,56.7,37.3,29.99,WNW,296,1.2,2.6,48,0.00,,,0.00,WeatherCatV1.24B11,2014-03-15 08:30:00,
2014-03-15 04:32:00,56.0,49.9,30.02,ESE,121,0.0,0.0,80,0.00,,,0.00,LWC V2.10 B1500,2014-03-15 08:32:00,
2014-03-15 04:35:00,56.7,37.3,29.99,WNW,296,1.2,2.6,48,0.00,,,0.00,WeatherCatV1.24B11,2014-03-15 08:35:00,
2014-03-15 04:37:00,56.0,50.2,30.02,ESE,121,0.0,0.0,81,0.00,,,0.00,LWC V2.10 B1500,2014-03-15 08:37:00,
2014-03-15 04:40:00,56.7,37.3,29.99,WNW,296,1.2,2.6,48,0.00,,,0.00,WeatherCatV1.24B11,2014-03-15 08:40:00,
2014-03-15 04:42:00,56.2,50.4,30.02,ESE,121,0.0,0.0,81,0.00,,,0.00,LWC V2.10 B1500,2014-03-15 08:42:00,
2014-03-15 04:45:00,56.7,37.3,29.99,WNW,296,1.2,2.6,48,0.00,,,0.00,WeatherCatV1.24B11,2014-03-15 08:45:00,
2014-03-15 04:47:00,56.5,50.7,30.01,SSE,161,0.0,0.0,81,0.00,,,0.00,LWC V2.10 B1500,2014-03-15 08:47:00,
2014-03-15 04:50:00,56.7,37.3,29.99,WNW,296,1.2,2.6,48,0.00,,,0.00,WeatherCatV1.24B11,2014-03-15 08:50:00,
2014-03-15 04:52:00,56.7,50.9,30.01,SSE,160,0.0,0.0,81,0.00,,,0.00,LWC V2.10 B1500,2014-03-15 08:52:00,
2014-03-15 04:55:00,56.7,37.3,29.99,WNW,296,1.2,2.6,48,0.00,,,0.00,WeatherCatV1.24B11,2014-03-15 08:55:00,
2014-03-15 04:57:00,56.7,50.9,30.01,SSE,155,0.0,0.0,81,0.00,,,0.00,LWC V2.10 B1500,2014-03-15 08:57:00,
2014-03-15 05:00:00,56.7,37.3,29.99,WNW,296,1.2,2.6,48,0.00,,,0.00,WeatherCatV1.24B11,2014-03-15 09:00:00,
2014-03-15 05:02:00,56.9,51.1,30.01,SSE,154,0.0,0.0,81,0.00,,,0.00,LWC V2.10 B1500,2014-03-15 09:02:00,
2014-03-15 05:05:00,56.7,37.3,29.99,WNW,296,1.2,2.6,48,0.00,,,0.00,WeatherCatV1.24B11,2014-03-15 09:05:00,
2014-03-15 05:07:00,56.9,51.5,30.01,SSE,151,0.0,0.0,82,0.00,,,0.00,LWC V2.10 B1500,2014-03-15 09:07:00,
2014-03-15 05:10:00,56.7,37.3,29.99,WNW,296,1.2,2.6,48,0.00,,,0.00,WeatherCatV1.24B11,2014-03-15 09:10:00,
2014-03-15 05:12:00,56.9,51.5,30.01,SSE,150,0.0,0.0,82,0.00,,,0.00,LWC V2.10 B1500,2014-03-15 09:12:00,
2014-03-15 05:15:00,56.7,37.3,29.99,WNW,296,1.2,2.6,48,0.00,,,0.00,WeatherCatV1.24B11,2014-03-15 09:15:00,
2014-03-15 05:17:00,56.9,51.5,30.01,SSE,148,0.0,0.0,82,0.00,,,0.00,LWC V2.10 B1500,2014-03-15 09:17:00,
2014-03-15 05:20:00,56.7,37.3,29.99,WNW,296,1.2,2.6,48,0.00,,,0.00,WeatherCatV1.24B11,2014-03-15 09:20:00,
2014-03-15 05:22:00,57.0,51.6,30.01,SE,128,0.0,0.0,82,0.00,,,0.00,LWC V2.10 B1500,2014-03-15 09:22:00,
2014-03-15 05:25:00,56.7,37.3,29.99,WNW,296,1.2,2.6,48,0.00,,,0.00,WeatherCatV1.24B11,2014-03-15 09:25:00,
2014-03-15 05:27:00,57.0,51.6,30.01,SSE,151,0.0,0.0,82,0.00,,,0.00,LWC V2.10 B1500,2014-03-15 09:27:00,
2014-03-15 05:30:00,56.7,37.3,29.99,WNW,296,1.2,2.6,48,0.00,,,0.00,WeatherCatV1.24B11,2014-03-15 09:30:00,
2014-03-15 05:32:00,57.2,51.8,30.01,SSE,165,0.0,0.0,82,0.00,,,0.00,LWC V2.10 B1500,2014-03-15 09:32:00,
2014-03-15 05:35:00,56.7,37.3,29.99,WNW,296,1.2,2.6,48,0.00,,,0.00,WeatherCatV1.24B11,2014-03-15 09:35:00,
2014-03-15 05:37:00,57.3,51.8,30.01,SE,138,0.0,0.0,82,0.00,,,0.00,LWC V2.10 B1500,2014-03-15 09:37:00,
2014-03-15 05:40:00,56.7,37.3,29.99,WNW,296,1.2,2.6,48,0.00,,,0.00,WeatherCatV1.24B11,2014-03-15 09:40:00,
2014-03-15 05:42:00,57.5,52.4,30.01,SSE,160,0.0,0.0,83,0.00,,,0.00,LWC V2.10 B1500,2014-03-15 09:42:00,
2014-03-15 05:45:00,56.7,37.3,29.99,WNW,296,1.2,2.6,48,0.00,,,0.00,WeatherCatV1.24B11,2014-03-15 09:45:00,
2014-03-15 05:47:00,57.6,52.5,30.01,SSE,164,0.0,0.0,83,0.00,,,0.00,LWC V2.10 B1500,2014-03-15 09:47:00,
2014-03-15 05:50:00,56.7,37.3,29.99,WNW,296,1.2,2.6,48,0.00,,,0.00,WeatherCatV1.24B11,2014-03-15 09:50:00,
2014-03-15 05:52:00,57.8,52.3,30.01,SSE,152,0.0,0.0,82,0.00,,,0.00,LWC V2.10 B1500,2014-03-15 09:52:00,
2014-03-15 05:55:00,56.7,37.3,29.99,WNW,296,1.2,2.6,48,0.00,,,0.00,WeatherCatV1.24B11,2014-03-15 09:55:00,
2014-03-15 05:57:00,58.0,52.9,30.01,SSE,157,0.0,2.0,83,0.00,,,0.00,LWC V2.10 B1500,2014-03-15 09:57:00,
2014-03-15 06:00:00,56.7,37.3,29.99,WNW,296,1.2,2.6,48,0.00,,,0.00,WeatherCatV1.24B11,2014-03-15 10:00:00,
2014-03-15 06:02:00,58.0,52.9,30.01,SE,136,0.0,2.0,83,0.00,,,0.00,LWC V2.10 B1500,2014-03-15 10:02:00,
2014-03-15 06:05:00,56.7,37.3,29.99,WNW,296,1.2,2.6,48,0.00,,,0.00,WeatherCatV1.24B11,2014-03-15 10:05:00,
2014-03-15 06:07:00,58.1,53.0,30.01,SE,134,0.0,2.0,83,0.00,,,0.00,LWC V2.10 B1500,2014-03-15 10:07:00,
2014-03-15 06:10:00,56.7,37.3,29.99,WNW,296,1.2,2.6,48,0.00,,,0.00,WeatherCatV1.24B11,2014-03-15 10:10:00,
2014-03-15 06:12:00,58.3,53.2,30.01,South,169,0.0,2.0,83,0.00,,,0.00,LWC V2.10 B1500,2014-03-15 10:12:00,
2014-03-15 06:15:00,56.7,37.3,29.99,WNW,296,1.2,2.6,48,0.00,,,0.00,WeatherCatV1.24B11,2014-03-15 10:15:00,
2014-03-15 06:17:00,58.3,53.2,30.02,SE,128,0.0,2.0,83,0.00,,,0.00,LWC V2.10 B1500,2014-03-15 10:17:00,
2014-03-15 06:20:00,56.7,37.3,29.99,WNW,296,1.2,2.6,48,0.00,,,0.00,WeatherCatV1.24B11,2014-03-15 10:20:00,
2014-03-15 06:22:00,58.3,53.2,30.02,SE,145,0.0,0.0,83,0.00,,,0.00,LWC V2.10 B1500,2014-03-15 10:22:00,
2014-03-15 06:25:00,56.7,37.3,29.99,WNW,296,1.2,2.6,48,0.00,,,0.00,WeatherCatV1.24B11,2014-03-15 10:25:00,
2014-03-15 06:27:00,58.4,53.3,30.02,SSE,151,0.0,0.0,83,0.00,,,0.00,LWC V2.10 B1500,2014-03-15 10:27:00,
2014-03-15 06:30:00,56.7,37.3,29.99,WNW,296,1.2,2.6,48,0.00,,,0.00,WeatherCatV1.24B11,2014-03-15 10:30:00,
2014-03-15 06:32:00,58.4,53.3,30.02,SSE,151,2.0,3.0,83,0.00,,,0.00,LWC V2.10 B1500,2014-03-15 10:32:00,
2014-03-15 06:35:00,56.7,37.3,29.99,WNW,296,1.2,2.6,48,0.00,,,0.00,WeatherCatV1.24B11,2014-03-15 10:35:00,
2014-03-15 06:37:00,58.4,53.3,30.02,SE,134,0.0,0.0,83,0.00,,,0.00,LWC V2.10 B1500,2014-03-15 10:37:00,
2014-03-15 06:40:00,56.7,37.3,29.99,WNW,296,1.2,2.6,48,0.00,,,0.00,WeatherCatV1.24B11,2014-03-15 10:40:00,
2014-03-15 06:42:00,58.4,53.3,30.02,SE,145,0.0,0.0,83,0.00,,,0.00,LWC V2.10 B1500,2014-03-15 10:42:00,
2014-03-15 06:45:00,56.7,37.3,29.99,WNW,296,1.2,2.6,48,0.00,,,0.00,WeatherCatV1.24B11,2014-03-15 10:45:00,
2014-03-15 06:47:00,58.4,53.6,30.02,ESE,123,0.0,0.0,84,0.00,,,0.00,LWC V2.10 B1500,2014-03-15 10:47:00,
2014-03-15 06:50:00,56.7,37.3,29.99,WNW,296,1.2,2.6,48,0.00,,,0.00,WeatherCatV1.24B11,2014-03-15 10:50:00,
2014-03-15 06:52:00,58.3,53.2,30.02,ESE,123,0.0,0.0,83,0.00,,,0.00,LWC V2.10 B1500,2014-03-15 10:52:00,
2014-03-15 06:55:00,56.7,37.3,29.99,WNW,296,1.2,2.6,48,0.00,,,0.00,WeatherCatV1.24B11,2014-03-15 10:55:00,
2014-03-15 06:57:00,58.3,53.5,30.02,ESE,123,0.0,0.0,84,0.00,,,0.00,LWC V2.10 B1500,2014-03-15 10:57:00,
2014-03-15 07:00:00,56.7,37.3,29.99,WNW,296,1.2,2.6,48,0.00,,,0.00,WeatherCatV1.24B11,2014-03-15 11:00:00,
2014-03-15 07:02:00,58.1,53.3,30.02,SSE,150,0.0,3.0,84,0.00,,,0.00,LWC V2.10 B1500,2014-03-15 11:02:00,
2014-03-15 07:05:00,56.7,37.3,29.99,WNW,296,1.2,2.6,48,0.00,,,0.00,WeatherCatV1.24B11,2014-03-15 11:05:00,
2014-03-15 07:07:00,58.0,53.2,30.02,SSE,148,0.0,0.0,84,0.00,,,0.00,LWC V2.10 B1500,2014-03-15 11:07:00,
2014-03-15 07:10:00,56.7,37.3,29.99,WNW,296,1.2,2.6,48,0.00,,,0.00,WeatherCatV1.24B11,2014-03-15 11:10:00,
2014-03-15 07:12:00,57.8,53.0,30.02,SSE,147,0.0,0.0,84,0.00,,,0.00,LWC V2.10 B1500,2014-03-15 11:12:00,
2014-03-15 07:15:00,56.7,37.3,29.99,WNW,296,1.2,2.6,48,0.00,,,0.00,WeatherCatV1.24B11,2014-03-15 11:15:00,
2014-03-15 07:17:00,57.6,52.8,30.03,SSE,147,0.0,0.0,84,0.00,,,0.00,LWC V2.10 B1500,2014-03-15 11:17:00,
2014-03-15 07:20:00,56.7,37.3,29.99,WNW,296,1.2,2.6,48,0.00,,,0.00,WeatherCatV1.24B11,2014-03-15 11:20:00,
2014-03-15 07:22:00,57.5,52.7,30.03,SE,145,0.0,0.0,84,0.00,,,0.00,LWC V2.10 B1500,2014-03-15 11:22:00,
2014-03-15 07:25:00,56.7,37.3,29.99,WNW,296,1.2,2.6,48,0.00,,,0.00,WeatherCatV1.24B11,2014-03-15 11:25:00,
2014-03-15 07:27:00,57.3,52.5,30.03,SE,145,0.0,0.0,84,0.00,,,0.00,LWC V2.10 B1500,2014-03-15 11:27:00,
2014-03-15 07:30:00,56.7,37.3,29.99,WNW,296,1.2,2.6,48,0.00,,,0.00,WeatherCatV1.24B11,2014-03-15 11:30:00,
2014-03-15 07:32:00,57.3,52.5,30.04,SE,144,0.0,0.0,84,0.00,,,0.00,LWC V2.10 B1500,2014-03-15 11:32:00,
2014-03-15 07:35:00,56.7,37.3,29.99,WNW,296,1.2,2.6,48,0.00,,,0.00,WeatherCatV1.24B11,2014-03-15 11:35:00,
2014-03-15 07:37:00,57.3,52.5,30.04,SE,144,0.0,0.0,84,0.00,,,0.00,LWC V2.10 B1500,2014-03-15 11:37:00,
2014-03-15 07:40:00,56.7,37.3,29.99,WNW,296,1.2,2.6,48,0.00,,,0.00,WeatherCatV1.24B11,2014-03-15 11:40:00,
2014-03-15 07:42:00,57.2,52.4,30.04,SE,144,0.0,0.0,84,0.00,,,0.00,LWC V2.10 B1500,2014-03-15 11:42:00,
2014-03-15 07:45:00,56.7,37.3,29.99,WNW,296,1.2,2.6,48,0.00,,,0.00,WeatherCatV1.24B11,2014-03-15 11:45:00,
2014-03-15 07:47:00,57.0,52.2,30.05,SE,126,0.0,0.0,84,0.00,,,0.00,LWC V2.10 B1500,2014-03-15 11:47:00,
2014-03-15 07:50:00,56.7,37.3,29.99,WNW,296,1.2,2.6,48,0.00,,,0.00,WeatherCatV1.24B11,2014-03-15 11:50:00,
2014-03-15 07:52:00,57.0,52.5,30.05,SE,126,0.0,0.0,85,0.00,,,0.00,LWC V2.10 B1500,2014-03-15 11:52:00,
2014-03-15 07:55:00,56.7,37.3,29.99,WNW,296,1.2,2.6,48,0.00,,,0.00,WeatherCatV1.24B11,2014-03-15 11:55:00,
2014-03-15 07:57:00,57.0,52.2,30.05,SE,126,0.0,0.0,84,0.00,,,0.00,LWC V2.10 B1500,2014-03-15 11:57:00,
2014-03-15 08:00:00,56.7,37.3,29.99,WNW,296,1.2,2.6,48,0.00,,,0.00,WeatherCatV1.24B11,2014-03-15 12:00:00,
2014-03-15 08:02:00,57.0,52.2,30.06,SE,126,0.0,0.0,84,0.00,,,0.00,LWC V2.10 B1500,2014-03-15 12:02:00,
2014-03-15 08:05:00,56.7,37.3,29.99,WNW,296,1.2,2.6,48,0.00,,,0.00,WeatherCatV1.24B11,2014-03-15 12:05:00,
2014-03-15 08:07:00,57.0,52.2,30.06,SE,126,0.0,0.0,84,0.00,,,0.00,LWC V2.10 B1500,2014-03-15 12:07:00,
2014-03-15 08:10:00,56.7,37.3,29.99,WNW,296,1.2,2.6,48,0.00,,,0.00,WeatherCatV1.24B11,2014-03-15 12:10:00,
2014-03-15 08:12:00,57.0,52.5,30.06,SE,126,0.0,0.0,85,0.00,,,0.00,LWC V2.10 B1500,2014-03-15 12:12:00,
2014-03-15 08:15:00,56.7,37.3,29.99,WNW,296,1.2,2.6,48,0.00,,,0.00,WeatherCatV1.24B11,2014-03-15 12:15:00,
2014-03-15 08:17:00,57.2,52.7,30.05,SE,126,0.0,0.0,85,0.00,,,0.00,LWC V2.10 B1500,2014-03-15 12:17:00,
2014-03-15 08:20:00,56.7,37.3,29.99,WNW,295,1.2,2.6,48,0.00,,,0.00,WeatherCatV1.24B11,2014-03-15 12:20:00,
2014-03-15 08:22:00,57.2,52.7,30.05,SE,144,0.0,0.0,85,0.00,,,0.00,LWC V2.10 B1500,2014-03-15 12:22:00,
2014-03-15 08:25:00,56.7,37.3,29.99,WNW,295,1.2,2.6,48,0.00,,,0.00,WeatherCatV1.24B11,2014-03-15 12:25:00,
2014-03-15 08:27:00,57.6,53.1,30.05,SE,141,0.0,0.0,85,0.00,,,0.00,LWC V2.10 B1500,2014-03-15 12:27:00,
2014-03-15 08:30:00,56.7,37.3,29.99,WNW,295,1.2,2.6,48,0.00,,,0.00,WeatherCatV1.24B11,2014-03-15 12:30:00,
2014-03-15 08:32:00,58.1,53.6,30.06,ESE,104,0.0,2.0,85,0.00,,,0.00,LWC V2.10 B1500,2014-03-15 12:32:00,
2014-03-15 08:35:00,56.7,37.3,29.99,WNW,295,1.2,2.6,48,0.00,,,0.00,WeatherCatV1.24B11,2014-03-15 12:35:00,
2014-03-15 08:37:00,58.4,53.9,30.06,SE,141,0.0,0.0,85,0.00,,,0.00,LWC V2.10 B1500,2014-03-15 12:37:00,
2014-03-15 08:40:00,56.7,37.3,29.99,WNW,295,1.2,2.6,48,0.00,,,0.00,WeatherCatV1.24B11,2014-03-15 12:40:00,
2014-03-15 08:42:00,58.6,54.1,30.06,SE,136,0.0,0.0,85,0.00,,,0.00,LWC V2.10 B1500,2014-03-15 12:42:00,
2014-03-15 08:45:00,56.7,37.3,29.99,WNW,295,1.2,2.6,48,0.00,,,0.00,WeatherCatV1.24B11,2014-03-15 12:45:00,
2014-03-15 08:47:00,58.9,54.4,30.05,SE,136,0.0,0.0,85,0.00,,,0.00,LWC V2.10 B1500,2014-03-15 12:47:00,
2014-03-15 08:50:00,56.7,37.3,29.99,WNW,295,1.2,2.6,48,0.00,,,0.00,WeatherCatV1.24B11,2014-03-15 12:50:00,
2014-03-15 08:52:00,59.2,54.7,30.05,ESE,109,0.0,0.0,85,0.00,,,0.00,LWC V2.10 B1500,2014-03-15 12:52:00,
2014-03-15 08:55:00,56.7,37.3,29.99,WNW,295,1.2,2.6,48,0.00,,,0.00,WeatherCatV1.24B11,2014-03-15 12:55:00,
2014-03-15 08:57:00,59.2,54.7,30.05,SSE,155,0.0,0.0,85,0.00,,,0.00,LWC V2.10 B1500,2014-03-15 12:57:00,
2014-03-15 09:00:00,56.7,37.3,29.99,WNW,295,1.2,2.6,48,0.00,,,0.00,WeatherCatV1.24B11,2014-03-15 13:00:00,
2014-03-15 09:02:00,59.3,54.8,30.06,SSE,150,0.0,3.0,85,0.00,,,0.00,LWC V2.10 B1500,2014-03-15 13:02:00,
2014-03-15 09:05:00,56.7,37.3,29.99,WNW,295,1.2,2.6,48,0.00,,,0.00,WeatherCatV1.24B11,2014-03-15 13:05:00,
2014-03-15 09:07:00,59.5,55.0,30.06,SE,136,0.0,2.0,85,0.00,,,0.00,LWC V2.10 B1500,2014-03-15 13:07:00,
2014-03-15 09:10:00,56.7,37.3,29.99,WNW,295,1.2,2.6,48,0.00,,,0.00,WeatherCatV1.24B11,2014-03-15 13:10:00,
2014-03-15 09:12:00,59.9,55.4,30.06,SSE,167,0.0,0.0,85,0.00,,,0.00,LWC V2.10 B1500,2014-03-15 13:12:00,
2014-03-15 09:15:00,56.7,37.3,29.99,WNW,295,1.2,2.6,48,0.00,,,0.00,WeatherCatV1.24B11,2014-03-15 13:15:00,
2014-03-15 09:17:00,60.7,56.2,30.07,SSE,158,0.0,3.0,85,0.00,,,0.00,LWC V2.10 B1500,2014-03-15 13:17:00,
2014-03-15 09:20:00,56.7,37.3,29.99,WNW,295,1.2,2.6,48,0.00,,,0.00,WeatherCatV1.24B11,2014-03-15 13:20:00,
2014-03-15 09:22:00,61.6,57.0,30.07,SSE,155,3.0,5.0,85,0.00,,,0.00,LWC V2.10 B1500,2014-03-15 13:22:00,
2014-03-15 09:25:00,56.7,37.3,29.99,WNW,295,1.2,2.6,48,0.00,,,0.00,WeatherCatV1.24B11,2014-03-15 13:25:00,
2014-03-15 09:27:00,62.3,57.7,30.07,SE,141,2.0,6.0,85,0.00,,,0.00,LWC V2.10 B1500,2014-03-15 13:27:00,
2014-03-15 09:30:00,56.7,37.3,29.99,WNW,295,1.2,2.6,48,0.00,,,0.00,WeatherCatV1.24B11,2014-03-15 13:30:00,
2014-03-15 09:32:00,62.7,57.8,30.07,South,179,0.0,6.0,84,0.00,,,0.00,LWC V2.10 B1500,2014-03-15 13:32:00,
2014-03-15 09:35:00,56.7,37.3,29.99,WNW,295,1.2,2.6,48,0.00,,,0.00,WeatherCatV1.24B11,2014-03-15 13:35:00,
2014-03-15 09:37:00,63.4,58.5,30.07,SE,143,2.0,2.0,84,0.00,,,0.00,LWC V2.10 B1500,2014-03-15 13:37:00,
2014-03-15 09:40:00,56.7,37.3,29.99,WNW,295,1.2,2.6,48,0.00,,,0.00,WeatherCatV1.24B11,2014-03-15 13:40:00,
2014-03-15 09:42:00,64.3,59.4,30.07,SE,128,0.0,5.0,84,0.00,,,0.00,LWC V2.10 B1500,2014-03-15 13:42:00,
2014-03-15 09:45:00,56.7,37.3,29.99,WNW,295,1.2,2.6,48,0.00,,,0.00,WeatherCatV1.24B11,2014-03-15 13:45:00,
2014-03-15 09:47:00,65.2,60.2,30.08,WSW,257,0.0,5.0,84,0.00,,,0.00,LWC V2.10 B1500,2014-03-15 13:47:00,
2014-03-15 09:50:00,56.7,37.3,29.99,WNW,295,1.2,2.6,48,0.00,,,0.00,WeatherCatV1.24B11,2014-03-15 13:50:00,
2014-03-15 09:52:00,65.8,60.5,30.08,SE,128,0.0,3.0,83,0.00,,,0.00,LWC V2.10 B1500,2014-03-15 13:52:00,
2014-03-15 09:55:00,56.7,37.3,29.99,WNW,295,1.2,2.6,48,0.00,,,0.00,WeatherCatV1.24B11,2014-03-15 13:55:00,
2014-03-15 09:57:00,66.4,60.7,30.08,South,171,1.0,3.0,82,0.00,,,0.00,LWC V2.10 B1500,2014-03-15 13:57:00,
2014-03-15 10:00:00,56.7,37.3,29.99,WNW,295,1.2,2.6,48,0.00,,,0.00,WeatherCatV1.24B11,2014-03-15 14:00:00,
2014-03-15 10:02:00,67.1,61.1,30.08,SSE,148,5.0,7.0,81,0.00,,,0.00,LWC V2.10 B1500,2014-03-15 14:02:00,
2014-03-15 10:05:00,56.7,37.3,29.99,WNW,295,1.2,2.6,48,0.00,,,0.00,WeatherCatV1.24B11,2014-03-15 14:05:00,
2014-03-15 10:07:00,67.1,60.7,30.08,SE,141,2.0,5.0,80,0.00,,,0.00,LWC V2.10 B1500,2014-03-15 14:07:00,
2014-03-15 10:10:00,56.7,37.3,29.99,WNW,295,1.2,2.6,48,0.00,,,0.00,WeatherCatV1.24B11,2014-03-15 14:10:00,
2014-03-15 10:12:00,67.8,61.4,30.08,South,184,0.0,5.0,80,0.00,,,0.00,LWC V2.10 B1500,2014-03-15 14:12:00,
2014-03-15 10:15:00,56.7,37.3,29.99,WNW,295,1.2,2.6,48,0.00,,,0.00,WeatherCatV1.24B11,2014-03-15 14:15:00,
2014-03-15 10:17:00,68.3,61.9,30.08,SE,144,1.0,6.0,80,0.00,,,0.00,LWC V2.10 B1500,2014-03-15 14:17:00,
2014-03-15 10:20:00,56.7,37.3,29.99,WNW,295,1.2,2.6,48,0.00,,,0.00,WeatherCatV1.24B11,2014-03-15 14:20:00,
2014-03-15 10:22:00,68.1,61.3,30.08,SSE,147,0.0,6.0,79,0.00,,,0.00,LWC V2.10 B1500,2014-03-15 14:22:00,
2014-03-15 10:25:00,56.7,37.3,29.99,WNW,295,1.2,2.6,48,0.00,,,0.00,WeatherCatV1.24B11,2014-03-15 14:25:00,
2014-03-15 10:27:00,68.4,61.3,30.08,SSE,154,3.0,5.0,78,0.00,,,0.00,LWC V2.10 B1500,2014-03-15 14:27:00,
2014-03-15 10:30:00,56.7,37.3,29.99,WNW,295,1.2,2.6,48,0.00,,,0.00,WeatherCatV1.24B11,2014-03-15 14:30:00,
2014-03-15 10:32:00,68.8,61.3,30.07,ESE,123,2.0,6.0,77,0.00,,,0.00,LWC V2.10 B1500,2014-03-15 14:32:00,
2014-03-15 10:35:00,56.7,37.3,29.99,WNW,295,1.2,2.6,48,0.00,,,0.00,WeatherCatV1.24B11,2014-03-15 14:35:00,
2014-03-15 10:37:00,68.9,61.4,30.07,SW,233,0.0,0.0,77,0.00,,,0.00,LWC V2.10 B1500,2014-03-15 14:37:00,
2014-03-15 10:40:00,56.7,37.3,29.99,WNW,295,1.2,2.6,48,0.00,,,0.00,WeatherCatV1.24B11,2014-03-15 14:40:00,
2014-03-15 10:42:00,69.4,61.5,30.07,South,186,0.0,0.0,76,0.00,,,0.00,LWC V2.10 B1500,2014-03-15 14:42:00,
2014-03-15 10:45:00,56.7,37.3,29.99,WNW,295,1.2,2.6,48,0.00,,,0.00,WeatherCatV1.24B11,2014-03-15 14:45:00,
2014-03-15 10:47:00,70.3,62.4,30.08,ESE,103,0.0,0.0,76,0.00,,,0.00,LWC V2.10 B1500,2014-03-15 14:47:00,
2014-03-15 10:50:00,56.7,37.3,29.99,WNW,295,1.2,2.6,48,0.00,,,0.00,WeatherCatV1.24B11,2014-03-15 14:50:00,
2014-03-15 10:52:00,70.8,62.1,30.08,East,96,0.0,3.0,74,0.00,,,0.00,LWC V2.10 B1500,2014-03-15 14:52:00,
2014-03-15 10:55:00,56.7,37.3,29.99,WNW,295,1.2,2.6,48,0.00,,,0.00,WeatherCatV1.24B11,2014-03-15 14:55:00,
2014-03-15 10:57:00,70.6,61.1,30.08,SE,126,0.0,5.0,72,0.00,,,0.00,LWC V2.10 B1500,2014-03-15 14:57:00,
2014-03-15 11:00:00,56.7,37.3,29.99,WNW,295,1.2,2.6,48,0.00,,,0.00,WeatherCatV1.24B11,2014-03-15 15:00:00,
2014-03-15 11:02:00,70.8,61.3,30.08,SE,134,2.0,3.0,72,0.00,,,0.00,LWC V2.10 B1500,2014-03-15 15:02:00,
2014-03-15 11:05:00,56.7,37.3,29.99,WNW,295,1.2,2.6,48,0.00,,,0.00,WeatherCatV1.24B11,2014-03-15 15:05:00,
2014-03-15 11:07:00,71.1,60.8,30.08,ESE,103,2.0,4.0,70,0.00,,,0.00,LWC V2.10 B1500,2014-03-15 15:07:00,
2014-03-15 11:10:00,56.7,37.3,29.99,WNW,295,1.2,2.6,48,0.00,,,0.00,WeatherCatV1.24B11,2014-03-15 15:10:00,
2014-03-15 11:12:00,70.9,60.2,30.08,ESE,113,3.0,4.0,69,0.00,,,0.00,LWC V2.10 B1500,2014-03-15 15:12:00,
2014-03-15 11:15:00,56.7,37.3,29.99,WNW,295,1.2,2.6,48,0.00,,,0.00,WeatherCatV1.24B11,2014-03-15 15:15:00,
2014-03-15 11:17:00,71.3,59.8,30.07,ESE,103,0.0,4.0,67,0.00,,,0.00,LWC V2.10 B1500,2014-03-15 15:17:00,
2014-03-15 11:20:00,56.7,37.3,29.99,WNW,295,1.2,2.6,48,0.00,,,0.00,WeatherCatV1.24B11,2014-03-15 15:20:00,
2014-03-15 11:22:00,71.6,60.0,30.07,SSE,154,1.0,7.0,67,0.00,,,0.00,LWC V2.10 B1500,2014-03-15 15:22:00,
2014-03-15 11:25:00,56.7,37.3,29.99,WNW,295,1.2,2.6,48,0.00,,,0.00,WeatherCatV1.24B11,2014-03-15 15:25:00,
2014-03-15 11:27:00,72.1,60.1,30.07,South,171,0.0,0.0,66,0.00,,,0.00,LWC V2.10 B1500,2014-03-15 15:27:00,
2014-03-15 11:30:00,56.7,37.3,29.99,WNW,295,1.2,2.6,48,0.00,,,0.00,WeatherCatV1.24B11,2014-03-15 15:30:00,
2014-03-15 11:32:00,72.7,60.7,30.07,South,169,0.0,5.0,66,0.00,,,0.00,LWC V2.10 B1500,2014-03-15 15:32:00,
2014-03-15 11:35:00,56.7,37.3,29.99,WNW,295,1.2,2.6,48,0.00,,,0.00,WeatherCatV1.24B11,2014-03-15 15:35:00,
2014-03-15 11:37:00,73.0,60.5,30.07,WNW,288,0.0,0.0,65,0.00,,,0.00,LWC V2.10 B1500,2014-03-15 15:37:00,
2014-03-15 11:40:00,56.7,37.3,29.99,WNW,295,1.2,2.6,48,0.00,,,0.00,WeatherCatV1.24B11,2014-03-15 15:40:00,
2014-03-15 11:42:00,73.0,60.1,30.07,ESE,103,1.0,5.0,64,0.00,,,0.00,LWC V2.10 B1500,2014-03-15 15:42:00,
2014-03-15 11:45:00,56.7,37.3,29.99,WNW,295,1.2,2.6,48,0.00,,,0.00,WeatherCatV1.24B11,2014-03-15 15:45:00,
2014-03-15 11:47:00,72.8,59.5,30.07,East,79,0.0,0.0,63,0.00,,,0.00,LWC V2.10 B1500,2014-03-15 15:47:00,
2014-03-15 11:50:00,56.7,37.3,29.99,WNW,295,1.2,2.6,48,0.00,,,0.00,WeatherCatV1.24B11,2014-03-15 15:50:00,
2014-03-15 11:52:00,72.7,59.4,30.07,North,11,0.0,3.0,63,0.00,,,0.00,LWC V2.10 B1500,2014-03-15 15:52:00,
2014-03-15 11:55:00,56.7,37.3,29.99,WNW,295,1.2,2.6,48,0.00,,,0.00,WeatherCatV1.24B11,2014-03-15 15:55:00,
2014-03-15 11:57:00,73.2,59.4,30.07,ENE,66,3.0,6.0,62,0.00,,,0.00,LWC V2.10 B1500,2014-03-15 15:57:00,
2014-03-15 12:00:00,56.7,37.3,29.99,WNW,295,1.2,2.6,48,0.00,,,0.00,WeatherCatV1.24B11,2014-03-15 16:00:00,
2014-03-15 12:02:00,73.0,57.8,30.07,SE,140,3.0,7.0,59,0.00,,,0.00,LWC V2.10 B1500,2014-03-15 16:02:00,
2014-03-15 12:05:00,56.7,37.4,29.99,WNW,295,1.2,2.6,48,0.00,,,0.00,WeatherCatV1.24B11,2014-03-15 16:05:00,
2014-03-15 12:07:00,73.0,57.8,30.07,ESE,107,3.0,6.0,59,0.00,,,0.00,LWC V2.10 B1500,2014-03-15 16:07:00,
2014-03-15 12:10:00,56.7,37.4,29.99,WNW,295,1.2,2.6,48,0.00,,,0.00,WeatherCatV1.24B11,2014-03-15 16:10:00,
2014-03-15 12:12:00,73.5,57.8,30.07,ENE,78,2.0,7.0,58,0.00,,,0.00,LWC V2.10 B1500,2014-03-15 16:12:00,
2014-03-15 12:15:00,56.7,37.4,29.99,WNW,295,1.2,2.6,48,0.00,,,0.00,WeatherCatV1.24B11,2014-03-15 16:15:00,
2014-03-15 12:17:00,73.9,57.2,30.07,ESE,121,0.0,4.0,56,0.00,,,0.00,LWC V2.10 B1500,2014-03-15 16:17:00,
2014-03-15 12:20:00,56.7,37.4,29.99,WNW,295,1.2,2.6,48,0.00,,,0.00,WeatherCatV1.24B11,2014-03-15 16:20:00,
2014-03-15 12:22:00,74.0,57.3,30.07,North,354,0.0,0.0,56,0.00,,,0.00,LWC V2.10 B1500,2014-03-15 16:22:00,
2014-03-15 12:25:00,56.7,37.4,29.99,WNW,295,1.2,2.6,48,0.00,,,0.00,WeatherCatV1.24B11,2014-03-15 16:25:00,
2014-03-15 12:27:00,74.6,57.8,30.07,SE,136,3.0,6.0,56,0.00,,,0.00,LWC V2.10 B1500,2014-03-15 16:27:00,
2014-03-15 12:30:00,56.7,37.4,29.99,WNW,295,1.2,2.6,48,0.00,,,0.00,WeatherCatV1.24B11,2014-03-15 16:30:00,
2014-03-15 12:32:00,75.1,57.8,30.06,WNW,288,0.0,0.0,55,0.00,,,0.00,LWC V2.10 B1500,2014-03-15 16:32:00,
2014-03-15 12:35:00,56.7,37.4,29.99,WNW,295,1.2,2.6,48,0.00,,,0.00,WeatherCatV1.24B11,2014-03-15 16:35:00,
2014-03-15 12:37:00,75.4,57.1,30.06,SSE,161,0.0,10.0,53,0.00,,,0.00,LWC V2.10 B1500,2014-03-15 16:37:00,
2014-03-15 12:40:00,56.7,37.4,29.99,WNW,295,1.2,2.6,48,0.00,,,0.00,WeatherCatV1.24B11,2014-03-15 16:40:00,
2014-03-15 12:42:00,75.3,56.4,30.06,South,186,0.0,7.0,52,0.00,,,0.00,LWC V2.10 B1500,2014-03-15 16:42:00,
2014-03-15 12:45:00,56.7,37.4,29.99,WNW,295,1.2,2.6,48,0.00,,,0.00,WeatherCatV1.24B11,2014-03-15 16:45:00,
2014-03-15 12:47:00,75.4,56.5,30.05,SE,126,0.0,5.0,52,0.00,,,0.00,LWC V2.10 B1500,2014-03-15 16:47:00,
2014-03-15 12:50:00,56.7,37.4,29.99,WNW,295,1.2,2.6,48,0.00,,,0.00,WeatherCatV1.24B11,2014-03-15 16:50:00,
2014-03-15 12:52:00,75.8,55.8,30.05,ESE,114,2.0,6.0,50,0.00,,,0.00,LWC V2.10 B1500,2014-03-15 16:52:00,
2014-03-15 12:55:00,56.7,37.4,29.99,WNW,295,1.2,2.6,48,0.00,,,0.00,WeatherCatV1.24B11,2014-03-15 16:55:00,
2014-03-15 12:57:00,75.6,54.5,30.05,NE,47,6.0,7.0,48,0.00,,,0.00,LWC V2.10 B1500,2014-03-15 16:57:00,
2014-03-15 13:00:00,56.7,37.4,29.99,WNW,295,1.2,2.6,48,0.00,,,0.00,WeatherCatV1.24B11,2014-03-15 17:00:00,
2014-03-15 13:02:00,75.6,53.9,30.05,ESE,121,3.0,7.0,47,0.00,,,0.00,LWC V2.10 B1500,2014-03-15 17:02:00,
2014-03-15 13:05:00,56.7,37.4,29.99,WNW,295,1.2,2.6,48,0.00,,,0.00,WeatherCatV1.24B11,2014-03-15 17:05:00,
2014-03-15 13:07:00,75.6,53.9,30.05,SE,138,4.0,7.0,47,0.00,,,0.00,LWC V2.10 B1500,2014-03-15 17:07:00,
2014-03-15 13:10:00,56.7,37.4,29.99,WNW,295,1.2,2.6,48,0.00,,,0.00,WeatherCatV1.24B11,2014-03-15 17:10:00,
2014-03-15 13:12:00,75.6,53.3,30.05,South,184,1.0,7.0,46,0.00,,,0.00,LWC V2.10 B1500,2014-03-15 17:12:00,
2014-03-15 13:15:00,56.8,37.4,29.99,WNW,295,1.2,2.6,48,0.00,,,0.00,WeatherCatV1.24B11,2014-03-15 17:15:00,
2014-03-15 13:17:00,75.6,53.3,30.03,SE,141,2.0,6.0,46,0.00,,,0.00,LWC V2.10 B1500,2014-03-15 17:17:00,
2014-03-15 13:20:00,56.8,37.4,29.99,WNW,295,1.2,2.6,48,0.00,,,0.00,WeatherCatV1.24B11,2014-03-15 17:20:00,
2014-03-15 13:22:00,75.6,53.3,30.03,ENE,78,3.0,8.0,46,0.00,,,0.00,LWC V2.10 B1500,2014-03-15 17:22:00,
2014-03-15 13:25:00,56.8,37.4,29.99,WNW,295,1.2,2.6,48,0.00,,,0.00,WeatherCatV1.24B11,2014-03-15 17:25:00,
2014-03-15 13:28:00,75.4,53.2,30.03,SSE,152,1.0,5.0,46,0.00,,,0.00,LWC V2.10 B1500,2014-03-15 17:28:00,
2014-03-15 13:30:00,56.8,37.4,29.99,WNW,295,1.2,2.6,48,0.00,,,0.00,WeatherCatV1.24B11,2014-03-15 17:30:00,
2014-03-15 13:33:00,75.8,52.9,30.03,SE,126,0.0,7.0,45,0.00,,,0.00,LWC V2.10 B1500,2014-03-15 17:33:00,
2014-03-15 13:35:00,56.8,37.4,29.99,WNW,295,1.2,2.6,48,0.00,,,0.00,WeatherCatV1.24B11,2014-03-15 17:35:00,
2014-03-15 13:38:00,76.3,52.8,30.03,ESE,121,3.0,7.0,44,0.00,,,0.00,LWC V2.10 B1500,2014-03-15 17:38:00,
2014-03-15 13:40:00,56.8,37.4,29.99,WNW,295,1.2,2.6,48,0.00,,,0.00,WeatherCatV1.24B11,2014-03-15 17:40:00,
2014-03-15 13:43:00,76.3,51.5,30.03,SE,145,7.0,12.0,42,0.00,,,0.00,LWC V2.10 B1500,2014-03-15 17:43:00,
2014-03-15 13:45:00,56.8,37.4,29.99,WNW,295,1.2,2.6,48,0.00,,,0.00,WeatherCatV1.24B11,2014-03-15 17:45:00,
2014-03-15 13:48:00,76.0,51.2,30.02,SSE,150,3.0,8.0,42,0.00,,,0.00,LWC V2.10 B1500,2014-03-15 17:48:00,
2014-03-15 13:50:00,56.8,37.4,29.99,WNW,295,1.2,2.6,48,0.00,,,0.00,WeatherCatV1.24B11,2014-03-15 17:50:00,
2014-03-15 13:53:00,76.0,51.2,30.02,West,272,0.0,1.0,42,0.00,,,0.00,LWC V2.10 B1500,2014-03-15 17:53:00,
2014-03-15 13:55:00,56.8,37.4,29.99,WNW,295,1.2,2.6,48,0.00,,,0.00,WeatherCatV1.24B11,2014-03-15 17:55:00,
2014-03-15 13:58:00,76.1,50.7,30.02,WSW,258,0.0,9.0,41,0.00,,,0.00,LWC V2.10 B1500,2014-03-15 17:58:00,
2014-03-15 14:00:00,56.8,37.4,29.99,WNW,295,1.2,2.6,48,0.00,,,0.00,WeatherCatV1.24B11,2014-03-15 18:00:00,
2014-03-15 14:03:00,76.5,50.4,30.01,SE,131,3.0,10.0,40,0.00,,,0.00,LWC V2.10 B1500,2014-03-15 18:03:00,
2014-03-15 14:05:00,56.8,37.4,29.99,WNW,295,1.2,2.6,48,0.00,,,0.00,WeatherCatV1.24B11,2014-03-15 18:05:00,
2014-03-15 14:08:00,76.7,50.5,30.01,South,182,0.0,1.0,40,0.00,,,0.00,LWC V2.10 B1500,2014-03-15 18:08:00,
2014-03-15 14:10:00,56.8,37.4,29.99,WNW,295,1.2,2.6,48,0.00,,,0.00,WeatherCatV1.24B11,2014-03-15 18:10:00,
2014-03-15 14:13:00,76.7,49.2,30.01,SE,145,2.0,11.0,38,0.00,,,0.00,LWC V2.10 B1500,2014-03-15 18:13:00,
2014-03-15 14:15:00,56.8,37.4,29.99,WNW,295,1.2,2.6,48,0.00,,,0.00,WeatherCatV1.24B11,2014-03-15 18:15:00,
2014-03-15 14:18:00,76.5,48.3,30.00,SE,138,2.0,9.0,37,0.00,,,0.00,LWC V2.10 B1500,2014-03-15 18:18:00,
2014-03-15 14:20:00,56.8,37.4,29.99,WNW,295,1.2,2.6,48,0.00,,,0.00,WeatherCatV1.24B11,2014-03-15 18:20:00,
2014-03-15 14:23:00,76.7,47.7,30.00,SE,145,4.0,8.0,36,0.00,,,0.00,LWC V2.10 B1500,2014-03-15 18:23:00,
2014-03-15 14:25:00,56.8,37.4,29.99,WNW,295,1.2,2.6,48,0.00,,,0.00,WeatherCatV1.24B11,2014-03-15 18:25:00,
2014-03-15 14:28:00,76.7,47.7,30.00,East,80,3.0,7.0,36,0.00,,,0.00,LWC V2.10 B1500,2014-03-15 18:28:00,
2014-03-15 14:30:00,56.8,37.4,29.99,WNW,295,1.2,2.6,48,0.00,,,0.00,WeatherCatV1.24B11,2014-03-15 18:30:00,
2014-03-15 14:33:00,76.7,47.7,30.00,SE,124,2.0,7.0,36,0.00,,,0.00,LWC V2.10 B1500,2014-03-15 18:33:00,
2014-03-15 14:35:00,56.8,37.4,29.99,WNW,295,1.2,2.6,48,0.00,,,0.00,WeatherCatV1.24B11,2014-03-15 18:35:00,
2014-03-15 14:38:00,77.0,48.0,30.00,WSW,251,2.0,7.0,36,0.00,,,0.00,LWC V2.10 B1500,2014-03-15 18:38:00,
2014-03-15 14:40:00,56.8,37.4,29.99,WNW,295,1.2,2.6,48,0.00,,,0.00,WeatherCatV1.24B11,2014-03-15 18:40:00,
2014-03-15 14:43:00,77.4,48.3,30.00,South,172,0.0,5.0,36,0.00,,,0.00,LWC V2.10 B1500,2014-03-15 18:43:00,
2014-03-15 14:45:00,56.8,37.4,29.99,WNW,295,1.2,2.6,48,0.00,,,0.00,WeatherCatV1.24B11,2014-03-15 18:45:00,
2014-03-15 14:48:00,77.2,50.3,30.00,NNW,330,7.0,7.0,39,0.00,,,0.00,LWC V2.10 B1500,2014-03-15 18:48:00,
2014-03-15 14:50:00,56.8,37.4,29.99,WNW,295,1.2,2.6,48,0.00,,,0.00,WeatherCatV1.24B11,2014-03-15 18:50:00,
2014-03-15 14:53:00,76.5,51.0,30.00,NW,313,1.0,7.0,41,0.00,,,0.00,LWC V2.10 B1500,2014-03-15 18:53:00,
2014-03-15 14:55:00,56.8,37.4,29.99,WNW,295,1.2,2.6,48,0.00,,,0.00,WeatherCatV1.24B11,2014-03-15 18:55:00,
2014-03-15 14:58:00,76.5,52.3,30.00,WNW,295,0.0,0.0,43,0.00,,,0.00,LWC V2.10 B1500,2014-03-15 18:58:00,
2014-03-15 15:00:00,56.8,37.4,29.99,WNW,295,1.2,2.6,48,0.00,,,0.00,WeatherCatV1.24B11,2014-03-15 19:00:00,
2014-03-15 15:03:00,76.5,52.9,29.99,NW,316,11.0,11.0,44,0.00,,,0.00,LWC V2.10 B1500,2014-03-15 19:03:00,
2014-03-15 15:05:00,56.8,37.4,29.99,WNW,295,1.2,2.6,48,0.00,,,0.00,WeatherCatV1.24B11,2014-03-15 19:05:00,
2014-03-15 15:08:00,76.0,53.1,29.99,WSW,250,7.0,10.0,45,0.00,,,0.00,LWC V2.10 B1500,2014-03-15 19:08:00,
2014-03-15 15:10:00,56.8,37.4,29.99,WNW,295,1.2,2.6,48,0.00,,,0.00,WeatherCatV1.24B11,2014-03-15 19:10:00,
2014-03-15 15:13:00,75.3,53.1,29.99,NNW,337,7.0,7.0,46,0.00,,,0.00,LWC V2.10 B1500,2014-03-15 19:13:00,
2014-03-15 15:15:00,56.8,37.4,29.99,WNW,295,1.2,2.6,48,0.00,,,0.00,WeatherCatV1.24B11,2014-03-15 19:15:00,
2014-03-15 15:18:00,74.2,51.5,29.98,NNW,339,5.0,11.0,45,0.00,,,0.00,LWC V2.10 B1500,2014-03-15 19:18:00,
2014-03-15 15:20:00,56.8,37.4,29.99,WNW,295,1.2,2.6,48,0.00,,,0.00,WeatherCatV1.24B11,2014-03-15 19:20:00,
2014-03-15 15:23:00,73.9,51.8,29.98,NNW,346,2.0,8.0,46,0.00,,,0.00,LWC V2.10 B1500,2014-03-15 19:23:00,
2014-03-15 15:25:00,56.8,37.4,29.99,WNW,295,1.2,2.6,48,0.00,,,0.00,WeatherCatV1.24B11,2014-03-15 19:25:00,
2014-03-15 15:28:00,73.9,52.4,29.98,NW,323,3.0,7.0,47,0.00,,,0.00,LWC V2.10 B1500,2014-03-15 19:28:00,
2014-03-15 15:30:00,56.8,37.4,29.99,WNW,295,1.2,2.6,48,0.00,,,0.00,WeatherCatV1.24B11,2014-03-15 19:30:00,
2014-03-15 15:33:00,74.0,52.5,29.98,NNW,340,8.0,8.0,47,0.00,,,0.00,LWC V2.10 B1500,2014-03-15 19:33:00,
2014-03-15 15:35:00,56.8,37.4,29.99,WNW,295,1.2,2.6,48,0.00,,,0.00,WeatherCatV1.24B11,2014-03-15 19:35:00,
2014-03-15 15:38:00,74.0,52.5,29.98,West,274,3.0,12.0,47,0.00,,,0.00,LWC V2.10 B1500,2014-03-15 19:38:00,
2014-03-15 15:40:00,56.8,37.4,29.99,WNW,295,1.2,2.6,48,0.00,,,0.00,WeatherCatV1.24B11,2014-03-15 19:40:00,
2014-03-15 15:43:00,74.0,52.5,29.98,WNW,296,3.0,14.0,47,0.00,,,0.00,LWC V2.10 B1500,2014-03-15 19:43:00,
2014-03-15 15:45:00,56.8,37.4,29.99,WNW,295,1.2,2.6,48,0.00,,,0.00,WeatherCatV1.24B11,2014-03-15 19:45:00,
2014-03-15 15:48:00,73.9,52.4,29.97,NW,326,10.0,12.0,47,0.00,,,0.00,LWC V2.10 B1500,2014-03-15 19:48:00,
2014-03-15 15:50:00,56.8,37.4,29.99,WNW,295,1.2,2.6,48,0.00,,,0.00,WeatherCatV1.24B11,2014-03-15 19:50:00,
2014-03-15 15:53:00,73.5,52.0,29.97,NW,311,4.0,11.0,47,0.00,,,0.00,LWC V2.10 B1500,2014-03-15 19:53:00,
2014-03-15 15:55:00,56.8,37.4,29.99,WNW,295,1.2,2.6,48,0.00,,,0.00,WeatherCatV1.24B11,2014-03-15 19:55:00,
2014-03-15 15:58:00,73.9,52.4,29.97,North,0,8.0,11.0,47,0.00,,,0.00,LWC V2.10 B1500,2014-03-15 19:58:00,
2014-03-15 16:00:00,56.8,37.4,29.99,WNW,295,1.2,2.6,48,0.00,,,0.00,WeatherCatV1.24B11,2014-03-15 20:00:00,
2014-03-15 16:03:00,73.7,52.2,29.96,NW,326,5.0,11.0,47,0.00,,,0.00,LWC V2.10 B1500,2014-03-15 20:03:00,
2014-03-15 16:05:00,56.8,37.4,29.99,WNW,295,1.2,2.6,48,0.00,,,0.00,WeatherCatV1.24B11,2014-03-15 20:05:00,
2014-03-15 16:08:00,73.7,52.8,29.96,NW,313,5.0,12.0,48,0.00,,,0.00,LWC V2.10 B1500,2014-03-15 20:08:00,
2014-03-15 16:10:00,56.8,37.4,29.99,WNW,295,1.2,2.6,48,0.00,,,0.00,WeatherCatV1.24B11,2014-03-15 20:10:00,
2014-03-15 16:13:00,73.7,52.8,29.96,NW,309,6.0,8.0,48,0.00,,,0.00,LWC V2.10 B1500,2014-03-15 20:13:00,
2014-03-15 16:15:00,56.8,37.4,29.99,WNW,295,1.2,2.6,48,0.00,,,0.00,WeatherCatV1.24B11,2014-03-15 20:15:00,
2014-03-15 16:18:00,73.7,52.8,29.96,NNW,340,2.0,12.0,48,0.00,,,0.00,LWC V2.10 B1500,2014-03-15 20:18:00,
2014-03-15 16:20:00,56.8,37.4,29.99,WNW,295,1.2,2.6,48,0.00,,,0.00,WeatherCatV1.24B11,2014-03-15 20:20:00,
2014-03-15 16:23:00,74.0,53.0,29.96,NW,318,5.0,11.0,48,0.00,,,0.00,LWC V2.10 B1500,2014-03-15 20:23:00,
2014-03-15 16:25:00,56.8,37.4,29.99,WNW,295,1.2,2.6,48,0.00,,,0.00,WeatherCatV1.24B11,2014-03-15 20:25:00,
2014-03-15 16:28:00,74.0,53.0,29.96,NNW,336,5.0,9.0,48,0.00,,,0.00,LWC V2.10 B1500,2014-03-15 20:28:00,
2014-03-15 16:30:00,56.8,37.4,29.99,WNW,295,1.2,2.6,48,0.00,,,0.00,WeatherCatV1.24B11,2014-03-15 20:30:00,
2014-03-15 16:33:00,73.7,52.8,29.96,WNW,289,5.0,7.0,48,0.00,,,0.00,LWC V2.10 B1500,2014-03-15 20:33:00,
2014-03-15 16:35:00,56.8,37.4,29.99,WNW,295,1.2,2.6,48,0.00,,,0.00,WeatherCatV1.24B11,2014-03-15 20:35:00,
2014-03-15 16:38:00,73.7,53.3,29.96,NNW,335,6.0,6.0,49,0.00,,,0.00,LWC V2.10 B1500,2014-03-15 20:38:00,
2014-03-15 16:40:00,56.8,37.4,29.99,WNW,295,1.2,2.6,48,0.00,,,0.00,WeatherCatV1.24B11,2014-03-15 20:40:00,
2014-03-15 16:43:00,74.0,53.6,29.96,WNW,287,0.0,3.0,49,0.00,,,0.00,LWC V2.10 B1500,2014-03-15 20:43:00,
2014-03-15 16:45:00,56.8,37.4,29.99,WNW,295,1.2,2.6,48,0.00,,,0.00,WeatherCatV1.24B11,2014-03-15 20:45:00,
2014-03-15 16:48:00,74.0,53.0,29.95,NNW,343,6.0,8.0,48,0.00,,,0.00,LWC V2.10 B1500,2014-03-15 20:48:00,
2014-03-15 16:50:00,56.8,37.4,29.99,WNW,295,1.2,2.6,48,0.00,,,0.00,WeatherCatV1.24B11,2014-03-15 20:50:00,
2014-03-15 16:53:00,73.7,52.8,29.95,NW,311,6.0,8.0,48,0.00,,,0.00,LWC V2.10 B1500,2014-03-15 20:53:00,
2014-03-15 16:55:00,56.8,37.4,29.99,WNW,295,1.2,2.6,48,0.00,,,0.00,WeatherCatV1.24B11,2014-03-15 20:55:00,
2014-03-15 16:58:00,73.5,52.6,29.95,NNW,347,2.0,8.0,48,0.00,,,0.00,LWC V2.10 B1500,2014-03-15 20:58:00,
2014-03-15 17:00:00,56.8,37.4,29.99,WNW,295,1.2,2.6,48,0.00,,,0.00,WeatherCatV1.24B11,2014-03-15 21:00:00,
2014-03-15 17:03:00,73.2,52.3,29.95,NW,304,3.0,9.0,48,0.00,,,0.00,LWC V2.10 B1500,2014-03-15 21:03:00,
2014-03-15 17:05:00,56.8,37.4,29.99,WNW,295,1.2,2.6,48,0.00,,,0.00,WeatherCatV1.24B11,2014-03-15 21:05:00,
2014-03-15 17:08:00,73.2,52.9,29.95,NNW,342,5.0,8.0,49,0.00,,,0.00,LWC V2.10 B1500,2014-03-15 21:08:00,
2014-03-15 17:10:00,56.8,37.4,29.99,WNW,295,1.2,2.6,48,0.00,,,0.00,WeatherCatV1.24B11,2014-03-15 21:10:00,
2014-03-15 17:13:00,73.0,52.7,29.95,North,8,5.0,9.0,49,0.00,,,0.00,LWC V2.10 B1500,2014-03-15 21:13:00,
2014-03-15 17:15:00,56.8,37.4,29.99,WNW,295,1.2,2.6,48,0.00,,,0.00,WeatherCatV1.24B11,2014-03-15 21:15:00,
2014-03-15 17:18:00,72.8,52.5,29.94,NW,319,5.0,7.0,49,0.00,,,0.00,LWC V2.10 B1500,2014-03-15 21:18:00,
2014-03-15 17:20:00,56.8,37.4,29.99,WNW,295,1.2,2.6,48,0.00,,,0.00,WeatherCatV1.24B11,2014-03-15 21:20:00,
2014-03-15 17:23:00,72.7,52.4,29.94,NNW,339,5.0,6.0,49,0.00,,,0.00,LWC V2.10 B1500,2014-03-15 21:23:00,
2014-03-15 17:25:00,56.8,37.4,29.99,WNW,295,1.2,2.6,48,0.00,,,0.00,WeatherCatV1.24B11,2014-03-15 21:25:00,
2014-03-15 17:28:00,72.7,53.0,29.94,North,0,8.0,8.0,50,0.00,,,0.00,LWC V2.10 B1500,2014-03-15 21:28:00,
2014-03-15 17:30:00,56.8,37.4,29.99,WNW,295,1.2,2.6,48,0.00,,,0.00,WeatherCatV1.24B11,2014-03-15 21:30:00,
2014-03-15 17:33:00,72.3,52.1,29.94,West,271,6.0,7.0,49,0.00,,,0.00,LWC V2.10 B1500,2014-03-15 21:33:00,
2014-03-15 17:35:00,56.8,37.4,29.99,WNW,295,1.2,2.6,48,0.00,,,0.00,WeatherCatV1.24B11,2014-03-15 21:35:00,
2014-03-15 17:38:00,72.1,52.4,29.94,NW,313,0.0,7.0,50,0.00,,,0.00,LWC V2.10 B1500,2014-03-15 21:38:00,
2014-03-15 17:40:00,56.8,37.4,29.99,WNW,295,1.2,2.6,48,0.00,,,0.00,WeatherCatV1.24B11,2014-03-15 21:40:00,
2014-03-15 17:43:00,72.5,53.3,29.94,WNW,302,4.0,7.0,51,0.00,,,0.00,LWC V2.10 B1500,2014-03-15 21:43:00,
2014-03-15 17:45:00,56.8,37.4,29.99,WNW,295,1.2,2.6,48,0.00,,,0.00,WeatherCatV1.24B11,2014-03-15 21:45:00,
2014-03-15 17:48:00,72.7,54.0,29.94,North,0,0.0,5.0,52,0.00,,,0.00,LWC V2.10 B1500,2014-03-15 21:48:00,
2014-03-15 17:50:00,56.8,37.4,29.99,WNW,295,1.2,2.6,48,0.00,,,0.00,WeatherCatV1.24B11,2014-03-15 21:50:00,
2014-03-15 17:53:00,72.7,53.5,29.94,North,349,1.0,8.0,51,0.00,,,0.00,LWC V2.10 B1500,2014-03-15 21:53:00,
2014-03-15 17:55:00,56.8,37.4,29.99,WNW,295,1.2,2.6,48,0.00,,,0.00,WeatherCatV1.24B11,2014-03-15 21:55:00,
2014-03-15 17:58:00,72.3,52.6,29.94,NNW,339,5.0,10.0,50,0.00,,,0.00,LWC V2.10 B1500,2014-03-15 21:58:00,
2014-03-15 18:00:00,56.8,37.4,29.99,WNW,295,1.2,2.6,48,0.00,,,0.00,WeatherCatV1.24B11,2014-03-15 22:00:00,
2014-03-15 18:03:00,72.0,52.3,29.94,North,353,2.0,10.0,50,0.00,,,0.00,LWC V2.10 B1500,2014-03-15 22:03:00,
2014-03-15 18:05:00,56.8,37.4,29.99,WNW,295,1.2,2.6,48,0.00,,,0.00,WeatherCatV1.24B11,2014-03-15 22:05:00,
2014-03-15 18:08:00,71.8,51.6,29.94,NW,305,6.0,10.0,49,0.00,,,0.00,LWC V2.10 B1500,2014-03-15 22:08:00,
2014-03-15 18:10:00,56.8,37.4,29.99,WNW,295,1.2,2.6,48,0.00,,,0.00,WeatherCatV1.24B11,2014-03-15 22:10:00,
2014-03-15 18:13:00,71.8,51.6,29.94,North,1,7.0,10.0,49,0.00,,,0.00,LWC V2.10 B1500,2014-03-15 22:13:00,
2014-03-15 18:15:00,56.8,37.4,29.99,WNW,295,1.2,2.6,48,0.00,,,0.00,WeatherCatV1.24B11,2014-03-15 22:15:00,
2014-03-15 18:18:00,71.8,51.6,29.95,NNW,343,2.0,7.0,49,0.00,,,0.00,LWC V2.10 B1500,2014-03-15 22:18:00,
2014-03-15 18:20:00,56.8,37.4,29.99,WNW,295,1.2,2.6,48,0.00,,,0.00,WeatherCatV1.24B11,2014-03-15 22:20:00,
2014-03-15 18:23:00,71.6,51.4,29.95,NNW,329,1.0,6.0,49,0.00,,,0.00,LWC V2.10 B1500,2014-03-15 22:23:00,
2014-03-15 18:25:00,56.8,37.4,29.99,WNW,295,1.2,2.6,48,0.00,,,0.00,WeatherCatV1.24B11,2014-03-15 22:25:00,
2014-03-15 18:28:00,71.8,51.6,29.95,North,356,2.0,2.0,49,0.00,,,0.00,LWC V2.10 B1500,2014-03-15 22:28:00,
2014-03-15 18:30:00,56.8,37.4,29.99,WNW,295,1.2,2.6,48,0.00,,,0.00,WeatherCatV1.24B11,2014-03-15 22:30:00,
2014-03-15 18:33:00,71.8,51.6,29.95,NNW,333,2.0,6.0,49,0.00,,,0.00,LWC V2.10 B1500,2014-03-15 22:33:00,
2014-03-15 18:35:00,56.8,37.4,29.99,WNW,295,1.2,2.6,48,0.00,,,0.00,WeatherCatV1.24B11,2014-03-15 22:35:00,
2014-03-15 18:38:00,72.0,52.3,29.95,NNW,344,0.0,5.0,50,0.00,,,0.00,LWC V2.10 B1500,2014-03-15 22:38:00,
2014-03-15 18:40:00,56.8,37.4,29.99,WNW,295,1.2,2.6,48,0.00,,,0.00,WeatherCatV1.24B11,2014-03-15 22:40:00,
2014-03-15 18:43:00,72.0,52.3,29.95,NNW,343,5.0,5.0,50,0.00,,,0.00,LWC V2.10 B1500,2014-03-15 22:43:00,
2014-03-15 18:45:00,56.8,37.4,29.99,WNW,295,1.2,2.6,48,0.00,,,0.00,WeatherCatV1.24B11,2014-03-15 22:45:00,
2014-03-15 18:48:00,71.8,52.1,29.95,NNW,337,0.0,1.0,50,0.00,,,0.00,LWC V2.10 B1500,2014-03-15 22:48:00,
2014-03-15 18:50:00,56.8,37.4,29.99,WNW,295,1.2,2.6,48,0.00,,,0.00,WeatherCatV1.24B11,2014-03-15 22:50:00,
2014-03-15 18:53:00,71.6,52.0,29.95,NNW,347,3.0,6.0,50,0.00,,,0.00,LWC V2.10 B1500,2014-03-15 22:53:00,
2014-03-15 18:55:00,56.8,37.4,29.99,WNW,295,1.2,2.6,48,0.00,,,0.00,WeatherCatV1.24B11,2014-03-15 22:55:00,
2014-03-15 18:58:00,71.6,52.0,29.95,North,356,3.0,5.0,50,0.00,,,0.00,LWC V2.10 B1500,2014-03-15 22:58:00,
2014-03-15 19:00:00,56.8,37.4,29.99,WNW,295,1.2,2.6,48,0.00,,,0.00,WeatherCatV1.24B11,2014-03-15 23:00:00,
2014-03-15 19:03:00,71.5,52.4,29.95,NNW,330,2.0,3.0,51,0.00,,,0.00,LWC V2.10 B1500,2014-03-15 23:03:00,
2014-03-15 19:05:00,56.8,37.4,29.99,WNW,295,1.2,2.6,48,0.00,,,0.00,WeatherCatV1.24B11,2014-03-15 23:05:00,
2014-03-15 19:08:00,71.3,52.2,29.95,North,0,0.0,0.0,51,0.00,,,0.00,LWC V2.10 B1500,2014-03-15 23:08:00,
2014-03-15 19:10:00,56.8,37.4,29.99,WNW,295,1.2,2.6,48,0.00,,,0.00,WeatherCatV1.24B11,2014-03-15 23:10:00,
2014-03-15 19:13:00,70.9,51.9,29.95,NNW,346,0.0,1.0,51,0.00,,,0.00,LWC V2.10 B1500,2014-03-15 23:13:00,
2014-03-15 19:15:00,56.8,37.4,29.99,WNW,295,1.2,2.6,48,0.00,,,0.00,WeatherCatV1.24B11,2014-03-15 23:15:00,
2014-03-15 19:18:00,70.8,51.8,29.94,North,8,0.0,3.0,51,0.00,,,0.00,LWC V2.10 B1500,2014-03-15 23:18:00,
2014-03-15 19:20:00,56.8,37.4,29.99,WNW,295,1.2,2.6,48,0.00,,,0.00,WeatherCatV1.24B11,2014-03-15 23:20:00,
2014-03-15 19:23:00,70.6,52.1,29.94,North,1,0.0,0.0,52,0.00,,,0.00,LWC V2.10 B1500,2014-03-15 23:23:00,
2014-03-15 19:25:00,56.8,37.4,29.99,WNW,295,1.2,2.6,48,0.00,,,0.00,WeatherCatV1.24B11,2014-03-15 23:25:00,
2014-03-15 19:28:00,70.4,51.9,29.94,North,0,0.0,0.0,52,0.00,,,0.00,LWC V2.10 B1500,2014-03-15 23:28:00,
2014-03-15 19:30:00,56.8,37.4,29.99,WNW,295,1.2,2.6,48,0.00,,,0.00,WeatherCatV1.24B11,2014-03-15 23:30:00,
2014-03-15 19:33:00,70.1,52.2,29.94,North,1,0.0,0.0,53,0.00,,,0.00,LWC V2.10 B1500,2014-03-15 23:33:00,
2014-03-15 19:35:00,56.8,37.4,29.99,WNW,295,1.2,2.6,48,0.00,,,0.00,WeatherCatV1.24B11,2014-03-15 23:35:00,
2014-03-15 19:38:00,69.9,52.0,29.94,North,1,0.0,0.0,53,0.00,,,0.00,LWC V2.10 B1500,2014-03-15 23:38:00,
2014-03-15 19:40:00,56.8,37.4,29.99,WNW,295,1.2,2.6,48,0.00,,,0.00,WeatherCatV1.24B11,2014-03-15 23:40:00,
2014-03-15 19:43:00,69.6,52.2,29.94,North,1,0.0,0.0,54,0.00,,,0.00,LWC V2.10 B1500,2014-03-15 23:43:00,
2014-03-15 19:45:00,56.8,37.4,29.99,WNW,295,1.2,2.6,48,0.00,,,0.00,WeatherCatV1.24B11,2014-03-15 23:45:00,
2014-03-15 19:48:00,69.4,52.0,29.95,North,3,0.0,0.0,54,0.00,,,0.00,LWC V2.10 B1500,2014-03-15 23:48:00,
2014-03-15 19:50:00,56.8,37.4,29.99,WNW,295,1.2,2.6,48,0.00,,,0.00,WeatherCatV1.24B11,2014-03-15 23:50:00,
2014-03-15 19:53:00,69.3,52.4,29.95,North,1,0.0,0.0,55,0.00,,,0.00,LWC V2.10 B1500,2014-03-15 23:53:00,
2014-03-15 19:55:00,56.8,37.4,29.99,WNW,295,1.2,2.6,48,0.00,,,0.00,WeatherCatV1.24B11,2014-03-15 23:55:00,
2014-03-15 19:58:00,69.1,52.2,29.95,North,3,0.0,0.0,55,0.00,,,0.00,LWC V2.10 B1500,2014-03-15 23:58:00,
2014-03-15 20:00:00,56.8,37.4,29.99,WNW,295,1.2,2.6,48,0.00,,,0.00,WeatherCatV1.24B11,2014-03-16 00:00:00,
2014-03-15 20:03:00,68.9,52.1,29.95,North,3,0.0,0.0,55,0.00,,,0.00,LWC V2.10 B1500,2014-03-16 00:03:00,
2014-03-15 20:05:00,56.8,37.4,29.99,WNW,295,1.2,2.6,48,0.00,,,0.00,WeatherCatV1.24B11,2014-03-16 00:05:00,
2014-03-15 20:08:00,68.8,52.5,29.95,North,3,0.0,0.0,56,0.00,,,0.00,LWC V2.10 B1500,2014-03-16 00:08:00,
2014-03-15 20:10:00,56.8,37.4,29.99,WNW,295,1.2,2.6,48,0.00,,,0.00,WeatherCatV1.24B11,2014-03-16 00:10:00,
2014-03-15 20:13:00,68.4,52.1,29.95,North,1,0.0,0.0,56,0.00,,,0.00,LWC V2.10 B1500,2014-03-16 00:13:00,
2014-03-15 20:15:00,56.8,37.4,29.99,WNW,295,1.2,2.6,48,0.00,,,0.00,WeatherCatV1.24B11,2014-03-16 00:15:00,
2014-03-15 20:18:00,68.3,52.5,29.95,North,3,0.0,0.0,57,0.00,,,0.00,LWC V2.10 B1500,2014-03-16 00:18:00,
2014-03-15 20:20:00,56.8,37.4,29.99,WNW,295,1.2,2.6,48,0.00,,,0.00,WeatherCatV1.24B11,2014-03-16 00:20:00,
2014-03-15 20:23:00,68.3,52.9,29.95,North,3,0.0,0.0,58,0.00,,,0.00,LWC V2.10 B1500,2014-03-16 00:23:00,
2014-03-15 20:25:00,56.8,37.4,29.99,WNW,295,1.2,2.6,48,0.00,,,0.00,WeatherCatV1.24B11,2014-03-16 00:25:00,
2014-03-15 20:28:00,68.1,52.8,29.95,North,3,0.0,0.0,58,0.00,,,0.00,LWC V2.10 B1500,2014-03-16 00:28:00,
2014-03-15 20:30:00,56.8,37.4,29.99,WNW,295,1.2,2.6,48,0.00,,,0.00,WeatherCatV1.24B11,2014-03-16 00:30:00,
2014-03-15 20:33:00,67.9,52.6,29.95,North,3,0.0,0.0,58,0.00,,,0.00,LWC V2.10 B1500,2014-03-16 00:33:00,
2014-03-15 20:35:00,56.8,37.4,29.99,WNW,295,1.2,2.6,48,0.00,,,0.00,WeatherCatV1.24B11,2014-03-16 00:35:00,
2014-03-15 20:38:00,67.6,52.8,29.95,North,3,0.0,0.0,59,0.00,,,0.00,LWC V2.10 B1500,2014-03-16 00:38:00,
2014-03-15 20:40:00,56.8,37.4,29.99,WNW,295,1.2,2.6,48,0.00,,,0.00,WeatherCatV1.24B11,2014-03-16 00:40:00,
2014-03-15 20:43:00,67.6,52.8,29.95,North,3,0.0,0.0,59,0.00,,,0.00,LWC V2.10 B1500,2014-03-16 00:43:00,
2014-03-15 20:45:00,56.8,37.4,29.99,WNW,295,1.2,2.6,48,0.00,,,0.00,WeatherCatV1.24B11,2014-03-16 00:45:00,
2014-03-15 20:48:00,67.4,53.0,29.94,North,4,0.0,0.0,60,0.00,,,0.00,LWC V2.10 B1500,2014-03-16 00:48:00,
2014-03-15 20:50:00,56.8,37.4,29.99,WNW,295,1.2,2.6,48,0.00,,,0.00,WeatherCatV1.24B11,2014-03-16 00:50:00,
2014-03-15 20:53:00,67.3,53.4,29.94,North,10,0.0,0.0,61,0.00,,,0.00,LWC V2.10 B1500,2014-03-16 00:53:00,
2014-03-15 20:55:00,56.8,37.4,29.99,WNW,295,1.2,2.6,48,0.00,,,0.00,WeatherCatV1.24B11,2014-03-16 00:55:00,
2014-03-15 20:58:00,67.1,53.6,29.94,North,10,0.0,0.0,62,0.00,,,0.00,LWC V2.10 B1500,2014-03-16 00:58:00,
2014-03-15 21:00:00,56.8,37.4,29.99,WNW,295,1.2,2.6,48,0.00,,,0.00,WeatherCatV1.24B11,2014-03-16 01:00:00,
2014-03-15 21:03:00,67.1,53.6,29.95,North,10,0.0,0.0,62,0.00,,,0.00,LWC V2.10 B1500,2014-03-16 01:03:00,
2014-03-15 21:05:00,56.8,37.4,29.99,WNW,295,1.2,2.6,48,0.00,,,0.00,WeatherCatV1.24B11,2014-03-16 01:05:00,
2014-03-15 21:08:00,66.9,53.9,29.95,North,10,0.0,0.0,63,0.00,,,0.00,LWC V2.10 B1500,2014-03-16 01:08:00,
2014-03-15 21:10:00,56.8,37.4,29.99,WNW,295,1.2,2.6,48,0.00,,,0.00,WeatherCatV1.24B11,2014-03-16 01:10:00,
2014-03-15 21:13:00,66.8,53.8,29.95,North,10,0.0,0.0,63,0.00,,,0.00,LWC V2.10 B1500,2014-03-16 01:13:00,
2014-03-15 21:15:00,56.8,37.4,29.99,WNW,295,1.2,2.6,48,0.00,,,0.00,WeatherCatV1.24B11,2014-03-16 01:15:00,
2014-03-15 21:18:00,66.6,54.0,29.95,NNE,27,0.0,0.0,64,0.00,,,0.00,LWC V2.10 B1500,2014-03-16 01:18:00,
2014-03-15 21:20:00,56.8,37.4,29.99,WNW,295,1.2,2.6,48,0.00,,,0.00,WeatherCatV1.24B11,2014-03-16 01:20:00,
2014-03-15 21:23:00,66.6,54.0,29.95,NNE,27,0.0,0.0,64,0.00,,,0.00,LWC V2.10 B1500,2014-03-16 01:23:00,
2014-03-15 21:25:00,56.8,37.4,29.99,WNW,295,1.2,2.6,48,0.00,,,0.00,WeatherCatV1.24B11,2014-03-16 01:25:00,
2014-03-15 21:28:00,66.8,54.2,29.95,NNE,27,0.0,0.0,64,0.00,,,0.00,LWC V2.10 B1500,2014-03-16 01:28:00,
2014-03-15 21:30:00,56.8,37.4,29.99,WNW,295,1.2,2.6,48,0.00,,,0.00,WeatherCatV1.24B11,2014-03-16 01:30:00,
2014-03-15 21:33:00,66.8,54.6,29.95,NNE,27,0.0,0.0,65,0.00,,,0.00,LWC V2.10 B1500,2014-03-16 01:33:00,
2014-03-15 21:35:00,56.8,37.4,29.99,WNW,295,1.2,2.6,48,0.00,,,0.00,WeatherCatV1.24B11,2014-03-16 01:35:00,
2014-03-15 21:38:00,66.6,54.5,29.95,NNE,27,0.0,0.0,65,0.00,,,0.00,LWC V2.10 B1500,2014-03-16 01:38:00,
2014-03-15 21:40:00,56.8,37.4,29.99,WNW,295,1.2,2.6,48,0.00,,,0.00,WeatherCatV1.24B11,2014-03-16 01:40:00,
2014-03-15 21:43:00,66.6,54.9,29.95,NNE,25,0.0,0.0,66,0.00,,,0.00,LWC V2.10 B1500,2014-03-16 01:43:00,
2014-03-15 21:45:00,56.8,37.4,29.99,WNW,295,1.2,2.6,48,0.00,,,0.00,WeatherCatV1.24B11,2014-03-16 01:45:00,
2014-03-15 21:48:00,66.4,54.7,29.95,NNE,25,0.0,0.0,66,0.00,,,0.00,LWC V2.10 B1500,2014-03-16 01:48:00,
2014-03-15 21:50:00,56.8,37.4,29.99,WNW,295,1.2,2.6,48,0.00,,,0.00,WeatherCatV1.24B11,2014-03-16 01:50:00,
2014-03-15 21:53:00,66.4,55.1,29.95,NNE,25,0.0,0.0,67,0.00,,,0.00,LWC V2.10 B1500,2014-03-16 01:53:00,
2014-03-15 21:55:00,56.8,37.4,29.99,WNW,295,1.2,2.6,48,0.00,,,0.00,WeatherCatV1.24B11,2014-03-16 01:55:00,
2014-03-15 21:58:00,66.3,55.0,29.95,NNE,25,0.0,0.0,67,0.00,,,0.00,LWC V2.10 B1500,2014-03-16 01:58:00,
2014-03-15 22:00:00,56.8,37.4,29.99,WNW,295,1.2,2.6,48,0.00,,,0.00,WeatherCatV1.24B11,2014-03-16 02:00:00,
2014-03-15 22:03:00,66.3,55.0,29.95,NNE,27,0.0,0.0,67,0.00,,,0.00,LWC V2.10 B1500,2014-03-16 02:03:00,
2014-03-15 22:05:00,56.8,37.4,29.99,WNW,295,1.2,2.6,48,0.00,,,0.00,WeatherCatV1.24B11,2014-03-16 02:05:00,
2014-03-15 22:08:00,66.1,55.2,29.95,NNE,28,0.0,0.0,68,0.00,,,0.00,LWC V2.10 B1500,2014-03-16 02:08:00,
2014-03-15 22:10:00,56.8,37.4,29.99,WNW,295,1.2,2.6,48,0.00,,,0.00,WeatherCatV1.24B11,2014-03-16 02:10:00,
2014-03-15 22:13:00,66.1,55.2,29.95,NE,37,0.0,0.0,68,0.00,,,0.00,LWC V2.10 B1500,2014-03-16 02:13:00,
2014-03-15 22:15:00,56.8,37.4,29.99,WNW,295,1.2,2.6,48,0.00,,,0.00,WeatherCatV1.24B11,2014-03-16 02:15:00,
2014-03-15 22:18:00,66.0,55.1,29.95,NE,37,0.0,0.0,68,0.00,,,0.00,LWC V2.10 B1500,2014-03-16 02:18:00,
2014-03-15 22:20:00,56.8,37.4,29.99,WNW,295,1.2,2.6,48,0.00,,,0.00,WeatherCatV1.24B11,2014-03-16 02:20:00,
2014-03-15 22:23:00,65.8,55.3,29.95,NE,37,0.0,0.0,69,0.00,,,0.00,LWC V2.10 B1500,2014-03-16 02:23:00,
2014-03-15 22:25:00,56.8,37.4,29.99,WNW,295,1.2,2.6,48,0.00,,,0.00,WeatherCatV1.24B11,2014-03-16 02:25:00,
2014-03-15 22:28:00,65.6,55.1,29.95,NE,37,0.0,0.0,69,0.00,,,0.00,LWC V2.10 B1500,2014-03-16 02:28:00,
2014-03-15 22:30:00,56.8,37.4,29.99,WNW,295,1.2,2.6,48,0.00,,,0.00,WeatherCatV1.24B11,2014-03-16 02:30:00,
2014-03-15 22:33:00,65.5,55.4,29.95,ENE,65,0.0,2.0,70,0.00,,,0.00,LWC V2.10 B1500,2014-03-16 02:33:00,
2014-03-15 22:35:00,56.8,37.4,29.99,WNW,295,1.2,2.6,48,0.00,,,0.00,WeatherCatV1.24B11,2014-03-16 02:35:00,
2014-03-15 22:38:00,65.3,55.3,29.95,ENE,65,0.0,0.0,70,0.00,,,0.00,LWC V2.10 B1500,2014-03-16 02:38:00,
2014-03-15 22:40:00,56.8,37.4,29.99,WNW,295,1.2,2.6,48,0.00,,,0.00,WeatherCatV1.24B11,2014-03-16 02:40:00,
2014-03-15 22:43:00,65.2,55.2,29.95,ENE,65,0.0,0.0,70,0.00,,,0.00,LWC V2.10 B1500,2014-03-16 02:43:00,
2014-03-15 22:45:00,56.8,37.4,29.99,WNW,295,1.2,2.6,48,0.00,,,0.00,WeatherCatV1.24B11,2014-03-16 02:45:00,
2014-03-15 22:48:00,65.0,55.4,29.94,ENE,65,0.0,0.0,71,0.00,,,0.00,LWC V2.10 B1500,2014-03-16 02:48:00,
2014-03-15 22:50:00,56.8,37.4,29.99,WNW,295,1.2,2.6,48,0.00,,,0.00,WeatherCatV1.24B11,2014-03-16 02:50:00,
2014-03-15 22:53:00,64.8,55.2,29.94,East,86,0.0,0.0,71,0.00,,,0.00,LWC V2.10 B1500,2014-03-16 02:53:00,
2014-03-15 22:55:00,56.8,37.4,29.99,WNW,295,1.2,2.6,48,0.00,,,0.00,WeatherCatV1.24B11,2014-03-16 02:55:00,
2014-03-15 22:58:00,64.7,55.5,29.94,East,86,0.0,0.0,72,0.00,,,0.00,LWC V2.10 B1500,2014-03-16 02:58:00,
2014-03-15 23:00:00,56.8,37.4,29.99,WNW,295,1.2,2.6,48,0.00,,,0.00,WeatherCatV1.24B11,2014-03-16 03:00:00,
2014-03-15 23:03:00,64.3,55.1,29.94,East,86,0.0,0.0,72,0.00,,,0.00,LWC V2.10 B1500,2014-03-16 03:03:00,
2014-03-15 23:05:00,56.8,37.4,29.99,WNW,295,1.2,2.6,48,0.00,,,0.00,WeatherCatV1.24B11,2014-03-16 03:05:00,
2014-03-15 23:08:00,64.2,55.0,29.94,East,86,0.0,0.0,72,0.00,,,0.00,LWC V2.10 B1500,2014-03-16 03:08:00,
2014-03-15 23:10:00,56.8,37.4,29.99,WNW,295,1.2,2.6,48,0.00,,,0.00,WeatherCatV1.24B11,2014-03-16 03:10:00,
2014-03-15 23:13:00,64.0,54.8,29.94,East,86,0.0,0.0,72,0.00,,,0.00,LWC V2.10 B1500,2014-03-16 03:13:00,
2014-03-15 23:15:00,56.8,37.4,29.99,WNW,295,1.2,2.6,48,0.00,,,0.00,WeatherCatV1.24B11,2014-03-16 03:15:00,
2014-03-15 23:18:00,64.0,55.2,29.94,East,86,0.0,0.0,73,0.00,,,0.00,LWC V2.10 B1500,2014-03-16 03:18:00,
2014-03-15 23:20:00,56.8,37.4,29.99,WNW,295,1.2,2.6,48,0.00,,,0.00,WeatherCatV1.24B11,2014-03-16 03:20:00,
2014-03-15 23:23:00,63.9,55.1,29.94,East,86,0.0,0.0,73,0.00,,,0.00,LWC V2.10 B1500,2014-03-16 03:23:00,
2014-03-15 23:25:00,56.8,37.4,29.99,WNW,295,1.2,2.6,48,0.00,,,0.00,WeatherCatV1.24B11,2014-03-16 03:25:00,
2014-03-15 23:28:00,63.9,55.1,29.94,East,86,0.0,0.0,73,0.00,,,0.00,LWC V2.10 B1500,2014-03-16 03:28:00,
2014-03-15 23:30:00,56.8,37.4,29.99,WNW,295,1.2,2.6,48,0.00,,,0.00,WeatherCatV1.24B11,2014-03-16 03:30:00,
2014-03-15 23:33:00,63.7,54.9,29.94,East,86,0.0,0.0,73,0.00,,,0.00,LWC V2.10 B1500,2014-03-16 03:33:00,
2014-03-15 23:35:00,56.8,37.4,29.99,WNW,295,1.2,2.6,48,0.00,,,0.00,WeatherCatV1.24B11,2014-03-16 03:35:00,
2014-03-15 23:38:00,63.5,55.1,29.94,East,86,0.0,0.0,74,0.00,,,0.00,LWC V2.10 B1500,2014-03-16 03:38:00,
2014-03-15 23:40:00,56.8,37.4,29.99,WNW,295,1.2,2.6,48,0.00,,,0.00,WeatherCatV1.24B11,2014-03-16 03:40:00,
2014-03-15 23:43:00,63.4,55.0,29.94,East,86,0.0,0.0,74,0.00,,,0.00,LWC V2.10 B1500,2014-03-16 03:43:00,
2014-03-15 23:45:00,56.8,37.4,29.99,WNW,295,1.2,2.6,48,0.00,,,0.00,WeatherCatV1.24B11,2014-03-16 03:45:00,
2014-03-15 23:48:00,63.2,55.1,29.94,East,86,0.0,0.0,75,0.00,,,0.00,LWC V2.10 B1500,2014-03-16 03:48:00,
2014-03-15 23:50:00,56.8,37.4,29.99,WNW,295,1.2,2.6,48,0.00,,,0.00,WeatherCatV1.24B11,2014-03-16 03:50:00,
2014-03-15 23:53:00,63.1,55.0,29.94,East,86,0.0,0.0,75,0.00,,,0.00,LWC V2.10 B1500,2014-03-16 03:53:00,
2014-03-15 23:55:00,56.8,37.4,29.99,WNW,295,1.2,2.6,48,0.00,,,0.00,WeatherCatV1.24B11,2014-03-16 03:55:00,
2014-03-15 23:58:00,63.1,55.4,29.94,East,85,2.0,4.0,76,0.00,,,0.00,LWC V2.10 B1500,2014-03-16 03:58:00,